Observation data for Romero 11SSW on 02/14/2020      Previous  Date  Next       Current Mesonet Observations  Soil Data  Daily Summary Page  Observations in Plain Language
KBR1 140600Z 07006KT M03/M06 A3024 RMK A01 T10321059  RH  082%=      5-min Rain = 0
KBR1 140601Z 07007KT M03/M06 A3024 RMK A01 T10321059  RH  081%=      5-min Rain = 0
KBR1 140602Z 07008KT M03/M06 A3024 RMK A01 T10321059  RH  081%=      5-min Rain = 0
KBR1 140603Z 07007KT M03/M06 A3024 RMK A01 T10321060  RH  081%=      5-min Rain = 0
KBR1 140604Z 07007KT M03/M06 A3024 RMK A01 T10321060  RH  081%=      5-min Rain = 0
KBR1 140605Z 07007KT M03/M06 A3024 RMK A01 T10321060  RH  081%=      5-min Rain = 0
KBR1 140606Z 07007KT M03/M06 A3024 RMK A01 T10321060  RH  081%=      5-min Rain = 0
KBR1 140607Z 06006KT M03/M06 A3024 RMK A01 T10321059  RH  081%=      5-min Rain = 0
KBR1 140608Z 06005KT M03/M06 A3024 RMK A01 T10321060  RH  081%=      5-min Rain = 0
KBR1 140609Z 06006KT M03/M06 A3024 RMK A01 T10321059  RH  082%=      5-min Rain = 0
KBR1 140610Z 07005KT M03/M06 A3024 RMK A01 T10321059  RH  082%=      5-min Rain = 0
KBR1 140611Z 06006KT M03/M06 A3024 RMK A01 T10321059  RH  082%=      5-min Rain = 0
KBR1 140612Z 07007KT M03/M06 A3024 RMK A01 T10321059  RH  082%=      5-min Rain = 0
KBR1 140613Z 07007KT M03/M06 A3024 RMK A01 T10321060  RH  081%=      5-min Rain = 0
KBR1 140614Z 07007KT M03/M06 A3024 RMK A01 T10321060  RH  081%=      5-min Rain = 0
KBR1 140615Z 08006KT M03/M06 A3024 RMK A01 T10331060  RH  081%=      5-min Rain = 0
KBR1 140616Z 08007KT M03/M06 A3024 RMK A01 T10331060  RH  081%=      5-min Rain = 0
KBR1 140617Z 08006KT M03/M06 A3024 RMK A01 T10331060  RH  081%=      5-min Rain = 0
KBR1 140618Z 07005KT M03/M06 A3024 RMK A01 T10331060  RH  081%=      5-min Rain = 0
KBR1 140619Z 06006KT M03/M06 A3024 RMK A01 T10331060  RH  082%=      5-min Rain = 0
KBR1 140620Z 06006KT M03/M06 A3024 RMK A01 T10331060  RH  082%=      5-min Rain = 0
KBR1 140621Z 06006KT M03/M06 A3024 RMK A01 T10331061  RH  082%=      5-min Rain = 0
KBR1 140622Z 07006KT M03/M06 A3024 RMK A01 T10341062  RH  081%=      5-min Rain = 0
KBR1 140623Z 06006KT M03/M06 A3024 RMK A01 T10341063  RH  081%=      5-min Rain = 0
KBR1 140624Z 07006KT M04/M06 A3024 RMK A01 T10351063  RH  081%=      5-min Rain = 0
KBR1 140625Z 06006KT M04/M06 A3024 RMK A01 T10351063  RH  081%=      5-min Rain = 0
KBR1 140626Z 07005KT M04/M06 A3024 RMK A01 T10351062  RH  081%=      5-min Rain = 0
KBR1 140627Z 07005KT M04/M06 A3024 RMK A01 T10351061  RH  082%=      5-min Rain = 0
KBR1 140628Z 07006KT M04/M06 A3024 RMK A01 T10351061  RH  082%=      5-min Rain = 0
KBR1 140629Z 06006KT M04/M06 A3024 RMK A01 T10351061  RH  082%=      5-min Rain = 0
KBR1 140630Z 06007KT M04/M06 A3025 RMK A01 T10351062  RH  082%=      5-min Rain = 0
KBR1 140631Z 06006KT M04/M06 A3025 RMK A01 T10351062  RH  082%=      5-min Rain = 0
KBR1 140632Z 06006KT M04/M06 A3025 RMK A01 T10351062  RH  081%=      5-min Rain = 0
KBR1 140633Z 07006KT M04/M06 A3025 RMK A01 T10351062  RH  082%=      5-min Rain = 0
KBR1 140634Z 07006KT M04/M06 A3025 RMK A01 T10351061  RH  082%=      5-min Rain = 0
KBR1 140635Z 07006KT M04/M06 A3025 RMK A01 T10351062  RH  082%=      5-min Rain = 0
KBR1 140636Z 07007KT M04/M06 A3025 RMK A01 T10351061  RH  082%=      5-min Rain = 0
KBR1 140637Z 07006KT M04/M06 A3025 RMK A01 T10351062  RH  082%=      5-min Rain = 0
KBR1 140638Z 07006KT M04/M06 A3025 RMK A01 T10351062  RH  082%=      5-min Rain = 0
KBR1 140639Z 07007KT M03/M06 A3025 RMK A01 T10341061  RH  082%=      5-min Rain = 0
KBR1 140640Z 07006KT M03/M06 A3024 RMK A01 T10341061  RH  081%=      5-min Rain = 0
KBR1 140641Z 07006KT M04/M06 A3024 RMK A01 T10351062  RH  082%=      5-min Rain = 0
KBR1 140642Z 08007KT M04/M06 A3024 RMK A01 T10351061  RH  082%=      5-min Rain = 0
KBR1 140643Z 08007KT M04/M06 A3024 RMK A01 T10351062  RH  082%=      5-min Rain = 0
KBR1 140644Z 07006KT M03/M06 A3024 RMK A01 T10341061  RH  082%=      5-min Rain = 0
KBR1 140645Z 06005KT M03/M06 A3024 RMK A01 T10341061  RH  082%=      5-min Rain = 0
KBR1 140646Z 07005KT M03/M06 A3024 RMK A01 T10341061  RH  082%=      5-min Rain = 0
KBR1 140647Z 07006KT M03/M06 A3024 RMK A01 T10341061  RH  082%=      5-min Rain = 0
KBR1 140648Z 06006KT M04/M06 A3024 RMK A01 T10351062  RH  081%=      5-min Rain = 0
KBR1 140649Z 06006KT M04/M06 A3024 RMK A01 T10351063  RH  081%=      5-min Rain = 0
KBR1 140650Z 06006KT M04/M06 A3024 RMK A01 T10361063  RH  081%=      5-min Rain = 0
KBR1 140651Z 06006KT M04/M06 A3024 RMK A01 T10361063  RH  081%=      5-min Rain = 0
KBR1 140652Z 07006KT M04/M06 A3024 RMK A01 T10361063  RH  082%=      5-min Rain = 0
KBR1 140653Z 07006KT M04/M06 A3024 RMK A01 T10361062  RH  082%=      5-min Rain = 0
KBR1 140654Z 07006KT M04/M06 A3024 RMK A01 T10361062  RH  082%=      5-min Rain = 0
KBR1 140655Z 07006KT M04/M06 A3024 RMK A01 T10361063  RH  082%=      5-min Rain = 0
KBR1 140656Z 07007KT M04/M06 A3024 RMK A01 T10361063  RH  081%=      5-min Rain = 0
KBR1 140657Z 07006KT M04/M06 A3024 RMK A01 T10361063  RH  082%=      5-min Rain = 0
KBR1 140658Z 06006KT M04/M06 A3024 RMK A01 T10361063  RH  082%=      5-min Rain = 0
KBR1 140659Z 07007KT M04/M06 A3024 RMK A01 T10371064  RH  081%=      5-min Rain = 0
KBR1 140700Z 07007KT M04/M07 A3024 RMK A01 T10371065  RH  081%=      5-min Rain = 0
KBR1 140701Z 07008KT M04/M07 A3024 RMK A01 T10371065  RH  081%=      5-min Rain = 0
KBR1 140702Z 07007KT M04/M07 A3024 RMK A01 T10381066  RH  081%=      5-min Rain = 0
KBR1 140703Z 07007KT M04/M07 A3024 RMK A01 T10381066  RH  081%=      5-min Rain = 0
KBR1 140704Z 07007KT M04/M07 A3024 RMK A01 T10391066  RH  081%=      5-min Rain = 0
KBR1 140705Z 07007KT M04/M07 A3024 RMK A01 T10391066  RH  081%=      5-min Rain = 0
KBR1 140706Z 07008KT M04/M07 A3024 RMK A01 T10381065  RH  082%=      5-min Rain = 0
KBR1 140707Z 07009KT M04/M07 A3024 RMK A01 T10381065  RH  082%=      5-min Rain = 0
KBR1 140708Z 07009KT M04/M07 A3024 RMK A01 T10381065  RH  082%=      5-min Rain = 0
KBR1 140709Z 07008KT M04/M07 A3024 RMK A01 T10381065  RH  081%=      5-min Rain = 0
KBR1 140710Z 06007KT M04/M07 A3024 RMK A01 T10381065  RH  082%=      5-min Rain = 0
KBR1 140711Z 06007KT M04/M07 A3024 RMK A01 T10381065  RH  082%=      5-min Rain = 0
KBR1 140712Z 06008KT M04/M07 A3024 RMK A01 T10371065  RH  082%=      5-min Rain = 0
KBR1 140713Z 06007KT M04/M07 A3024 RMK A01 T10381065  RH  081%=      5-min Rain = 0
KBR1 140714Z 07008KT M04/M07 A3024 RMK A01 T10381065  RH  081%=      5-min Rain = 0
KBR1 140715Z 07006KT M04/M07 A3024 RMK A01 T10381065  RH  081%=      5-min Rain = 0
KBR1 140716Z 07006KT M04/M07 A3024 RMK A01 T10381065  RH  082%=      5-min Rain = 0
KBR1 140717Z 07005KT M04/M07 A3024 RMK A01 T10381065  RH  082%=      5-min Rain = 0
KBR1 140718Z 07006KT M04/M07 A3024 RMK A01 T10381065  RH  082%=      5-min Rain = 0
KBR1 140719Z 07006KT M04/M07 A3024 RMK A01 T10381065  RH  082%=      5-min Rain = 0
KBR1 140720Z 06007KT M04/M07 A3024 RMK A01 T10381065  RH  082%=      5-min Rain = 0
KBR1 140721Z 07007KT M04/M07 A3024 RMK A01 T10381065  RH  081%=      5-min Rain = 0
KBR1 140722Z 07008KT M04/M07 A3024 RMK A01 T10381065  RH  081%=      5-min Rain = 0
KBR1 140723Z 06007KT M04/M07 A3024 RMK A01 T10381066  RH  081%=      5-min Rain = 0
KBR1 140724Z 07006KT M04/M07 A3024 RMK A01 T10381066  RH  081%=      5-min Rain = 0
KBR1 140725Z 07006KT M04/M07 A3024 RMK A01 T10391065  RH  082%=      5-min Rain = 0
KBR1 140726Z 07006KT M04/M07 A3024 RMK A01 T10381065  RH  082%=      5-min Rain = 0
KBR1 140727Z 07006KT M04/M07 A3024 RMK A01 T10381065  RH  082%=      5-min Rain = 0
KBR1 140728Z 08007KT M04/M07 A3024 RMK A01 T10381065  RH  082%=      5-min Rain = 0
KBR1 140729Z 08006KT M04/M07 A3024 RMK A01 T10371065  RH  081%=      5-min Rain = 0
KBR1 140730Z 07006KT M04/M07 A3024 RMK A01 T10381065  RH  081%=      5-min Rain = 0
KBR1 140731Z 08006KT M04/M07 A3024 RMK A01 T10381065  RH  081%=      5-min Rain = 0
KBR1 140732Z 07006KT M04/M07 A3024 RMK A01 T10381065  RH  081%=      5-min Rain = 0
KBR1 140733Z 07006KT M04/M07 A3024 RMK A01 T10381065  RH  081%=      5-min Rain = 0
KBR1 140734Z 07006KT M04/M07 A3024 RMK A01 T10381065  RH  081%=      5-min Rain = 0
KBR1 140735Z 07006KT M04/M07 A3024 RMK A01 T10381065  RH  081%=      5-min Rain = 0
KBR1 140736Z 08006KT M04/M07 A3024 RMK A01 T10381065  RH  081%=      5-min Rain = 0
KBR1 140737Z 07006KT M04/M07 A3024 RMK A01 T10371065  RH  081%=      5-min Rain = 0
KBR1 140738Z 08005KT M04/M06 A3024 RMK A01 T10371064  RH  082%=      5-min Rain = 0
KBR1 140739Z 08006KT M04/M06 A3024 RMK A01 T10371064  RH  082%=      5-min Rain = 0
KBR1 140740Z 07006KT M04/M06 A3024 RMK A01 T10371064  RH  081%=      5-min Rain = 0
KBR1 140741Z 07006KT M04/M07 A3024 RMK A01 T10381065  RH  081%=      5-min Rain = 0
KBR1 140742Z 06006KT M04/M07 A3024 RMK A01 T10381065  RH  081%=      5-min Rain = 0
KBR1 140743Z 06006KT M04/M07 A3024 RMK A01 T10381065  RH  082%=      5-min Rain = 0
KBR1 140744Z 07007KT M04/M07 A3024 RMK A01 T10381065  RH  081%=      5-min Rain = 0
KBR1 140745Z 07007KT M04/M07 A3024 RMK A01 T10391066  RH  081%=      5-min Rain = 0
KBR1 140746Z 07006KT M04/M07 A3024 RMK A01 T10391067  RH  081%=      5-min Rain = 0
KBR1 140747Z 08006KT M04/M07 A3024 RMK A01 T10391066  RH  081%=      5-min Rain = 0
KBR1 140748Z 08007KT M04/M07 A3024 RMK A01 T10391066  RH  081%=      5-min Rain = 0
KBR1 140749Z 07006KT M04/M07 A3024 RMK A01 T10391066  RH  082%=      5-min Rain = 0
KBR1 140750Z 08006KT M04/M07 A3024 RMK A01 T10391066  RH  082%=      5-min Rain = 0
KBR1 140751Z 08006KT M04/M07 A3024 RMK A01 T10391065  RH  082%=      5-min Rain = 0
KBR1 140752Z 08006KT M04/M07 A3024 RMK A01 T10391066  RH  082%=      5-min Rain = 0
KBR1 140753Z 08005KT M04/M07 A3024 RMK A01 T10391066  RH  082%=      5-min Rain = 0
KBR1 140754Z 09006KT M04/M07 A3024 RMK A01 T10391065  RH  082%=      5-min Rain = 0
KBR1 140755Z 09005KT M04/M07 A3024 RMK A01 T10381065  RH  082%=      5-min Rain = 0
KBR1 140756Z 09005KT M04/M06 A3024 RMK A01 T10381064  RH  082%=      5-min Rain = 0
KBR1 140757Z 09006KT M04/M06 A3024 RMK A01 T10381064  RH  082%=      5-min Rain = 0
KBR1 140758Z 09005KT M04/M06 A3024 RMK A01 T10371063  RH  082%=      5-min Rain = 0
KBR1 140759Z 09005KT M04/M06 A3024 RMK A01 T10371064  RH  082%=      5-min Rain = 0
KBR1 140800Z 10004KT M04/M06 A3024 RMK A01 T10371063  RH  082%=      5-min Rain = 0
KBR1 140801Z 09004KT M04/M06 A3024 RMK A01 T10371063  RH  082%=      5-min Rain = 0
KBR1 140802Z 09005KT M04/M06 A3024 RMK A01 T10371063  RH  082%=      5-min Rain = 0
KBR1 140803Z 10005KT M04/M06 A3024 RMK A01 T10361063  RH  082%=      5-min Rain = 0
KBR1 140804Z 10005KT M04/M06 A3024 RMK A01 T10361063  RH  082%=      5-min Rain = 0
KBR1 140805Z 11005KT M04/M06 A3024 RMK A01 T10361062  RH  082%=      5-min Rain = 0
KBR1 140806Z 11006KT M04/M06 A3024 RMK A01 T10351061  RH  082%=      5-min Rain = 0
KBR1 140807Z 12006KT M04/M06 A3024 RMK A01 T10351061  RH  082%=      5-min Rain = 0
KBR1 140808Z 12007KT M03/M06 A3024 RMK A01 T10341061  RH  082%=      5-min Rain = 0
KBR1 140809Z 12008KT M03/M06 A3024 RMK A01 T10341061  RH  082%=      5-min Rain = 0
KBR1 140810Z 12007KT M03/M06 A3023 RMK A01 T10341062  RH  081%=      5-min Rain = 0
KBR1 140811Z 11006KT M03/M06 A3023 RMK A01 T10341062  RH  081%=      5-min Rain = 0
KBR1 140812Z 11006KT M03/M06 A3023 RMK A01 T10341062  RH  081%=      5-min Rain = 0
KBR1 140813Z 12006KT M03/M06 A3023 RMK A01 T10341062  RH  081%=      5-min Rain = 0
KBR1 140814Z 11006KT M03/M06 A3023 RMK A01 T10341062  RH  081%=      5-min Rain = 0
KBR1 140815Z 11005KT M03/M06 A3023 RMK A01 T10341061  RH  081%=      5-min Rain = 0
KBR1 140816Z 11006KT M03/M06 A3023 RMK A01 T10331060  RH  082%=      5-min Rain = 0
KBR1 140817Z 12007KT M03/M06 A3023 RMK A01 T10331061  RH  081%=      5-min Rain = 0
KBR1 140818Z 11006KT M03/M06 A3023 RMK A01 T10341061  RH  081%=      5-min Rain = 0
KBR1 140819Z 11005KT M03/M06 A3023 RMK A01 T10341060  RH  082%=      5-min Rain = 0
KBR1 140820Z 11007KT M03/M06 A3023 RMK A01 T10341060  RH  082%=      5-min Rain = 0
KBR1 140821Z 12007KT M03/M06 A3023 RMK A01 T10331060  RH  082%=      5-min Rain = 0
KBR1 140822Z 12006KT M03/M06 A3023 RMK A01 T10341061  RH  081%=      5-min Rain = 0
KBR1 140823Z 11006KT M03/M06 A3023 RMK A01 T10341061  RH  081%=      5-min Rain = 0
KBR1 140824Z 12006KT M03/M06 A3023 RMK A01 T10341061  RH  082%=      5-min Rain = 0
KBR1 140825Z 11007KT M03/M06 A3023 RMK A01 T10331060  RH  082%=      5-min Rain = 0
KBR1 140826Z 11007KT M03/M06 A3023 RMK A01 T10341060  RH  082%=      5-min Rain = 0
KBR1 140827Z 11007KT M03/M06 A3023 RMK A01 T10341061  RH  082%=      5-min Rain = 0
KBR1 140828Z 11006KT M03/M06 A3023 RMK A01 T10341061  RH  082%=      5-min Rain = 0
KBR1 140829Z 11006KT M03/M06 A3023 RMK A01 T10341060  RH  082%=      5-min Rain = 0
KBR1 140830Z 12006KT M03/M06 A3023 RMK A01 T10341060  RH  082%=      5-min Rain = 0
KBR1 140831Z 12006KT M03/M06 A3023 RMK A01 T10341060  RH  082%=      5-min Rain = 0
KBR1 140832Z 12004KT M03/M06 A3023 RMK A01 T10331059  RH  083%=      5-min Rain = 0
KBR1 140833Z 12005KT M03/M06 A3023 RMK A01 T10331058  RH  083%=      5-min Rain = 0
KBR1 140834Z 13006KT M03/M06 A3023 RMK A01 T10331058  RH  083%=      5-min Rain = 0
KBR1 140835Z 12006KT M03/M06 A3023 RMK A01 T10331058  RH  083%=      5-min Rain = 0
KBR1 140836Z 13006KT M03/M06 A3023 RMK A01 T10331058  RH  083%=      5-min Rain = 0
KBR1 140837Z 14006KT M03/M06 A3023 RMK A01 T10321057  RH  083%=      5-min Rain = 0
KBR1 140838Z 13006KT M03/M06 A3023 RMK A01 T10321057  RH  083%=      5-min Rain = 0
KBR1 140839Z 13006KT M03/M06 A3023 RMK A01 T10321057  RH  083%=      5-min Rain = 0
KBR1 140840Z 15007KT M03/M06 A3023 RMK A01 T10311056  RH  083%=      5-min Rain = 0
KBR1 140841Z 15008KT M03/M06 A3023 RMK A01 T10301055  RH  083%=      5-min Rain = 0
KBR1 140842Z 15010KT M03/M06 A3023 RMK A01 T10301055  RH  083%=      5-min Rain = 0
KBR1 140843Z 14010KT M03/M06 A3023 RMK A01 T10301055  RH  083%=      5-min Rain = 0
KBR1 140844Z 14008KT M03/M06 A3023 RMK A01 T10301055  RH  083%=      5-min Rain = 0
KBR1 140845Z 14007KT M03/M06 A3023 RMK A01 T10301055  RH  083%=      5-min Rain = 0
KBR1 140846Z 15009KT M03/M06 A3023 RMK A01 T10301055  RH  083%=      5-min Rain = 0
KBR1 140847Z 15008KT M03/M06 A3023 RMK A01 T10301055  RH  083%=      5-min Rain = 0
KBR1 140848Z 15007KT M03/M06 A3023 RMK A01 T10301055  RH  083%=      5-min Rain = 0
KBR1 140849Z 15008KT M03/M06 A3023 RMK A01 T10301055  RH  083%=      5-min Rain = 0
KBR1 140850Z 16008KT M03/M05 A3023 RMK A01 T10301054  RH  083%=      5-min Rain = 0
KBR1 140851Z 16007KT M03/M05 A3023 RMK A01 T10301054  RH  083%=      5-min Rain = 0
KBR1 140852Z 15007KT M03/M05 A3023 RMK A01 T10301054  RH  084%=      5-min Rain = 0
KBR1 140853Z 15009KT M03/M05 A3023 RMK A01 T10291053  RH  084%=      5-min Rain = 0
KBR1 140854Z 15010KT M03/M05 A3023 RMK A01 T10301053  RH  084%=      5-min Rain = 0
KBR1 140855Z 15009KT M03/M05 A3023 RMK A01 T10301054  RH  084%=      5-min Rain = 0
KBR1 140856Z 15009KT M03/M05 A3023 RMK A01 T10301054  RH  084%=      5-min Rain = 0
KBR1 140857Z 15010KT M03/M05 A3023 RMK A01 T10301053  RH  084%=      5-min Rain = 0
KBR1 140858Z 15009KT M03/M05 A3023 RMK A01 T10301053  RH  084%=      5-min Rain = 0
KBR1 140859Z 15011KT M03/M05 A3023 RMK A01 T10301053  RH  084%=      5-min Rain = 0
KBR1 140900Z 15010KT M03/M05 A3023 RMK A01 T10301053  RH  084%=      5-min Rain = 0
KBR1 140901Z 15009KT M03/M05 A3023 RMK A01 T10301053  RH  084%=      5-min Rain = 0
KBR1 140902Z 15008KT M03/M05 A3023 RMK A01 T10311053  RH  085%=      5-min Rain = 0
KBR1 140903Z 14008KT M03/M05 A3023 RMK A01 T10311053  RH  085%=      5-min Rain = 0
KBR1 140904Z 15011KT M03/M05 A3023 RMK A01 T10311053  RH  085%=      5-min Rain = 0
KBR1 140905Z 15012KT M03/M05 A3023 RMK A01 T10311053  RH  085%=      5-min Rain = 0
KBR1 140906Z 15011KT M03/M05 A3023 RMK A01 T10311053  RH  085%=      5-min Rain = 0
KBR1 140907Z 15008KT M03/M05 A3023 RMK A01 T10321052  RH  086%=      5-min Rain = 0
KBR1 140908Z 15009KT M03/M05 A3023 RMK A01 T10321051  RH  086%=      5-min Rain = 0
KBR1 140909Z 15009KT M03/M05 A3023 RMK A01 T10321051  RH  086%=      5-min Rain = 0
KBR1 140910Z 15010KT M03/M05 A3023 RMK A01 T10321052  RH  086%=      5-min Rain = 0
KBR1 140911Z 15008KT M03/M05 A3023 RMK A01 T10321052  RH  086%=      5-min Rain = 0
KBR1 140912Z 14009KT M03/M05 A3023 RMK A01 T10321051  RH  086%=      5-min Rain = 0
KBR1 140913Z 15009KT M03/M05 A3023 RMK A01 T10321051  RH  086%=      5-min Rain = 0
KBR1 140914Z 15010KT M03/M05 A3023 RMK A01 T10321051  RH  086%=      5-min Rain = 0
KBR1 140915Z 15008KT M03/M05 A3023 RMK A01 T10321051  RH  087%=      5-min Rain = 0
KBR1 140916Z 15007KT M03/M05 A3023 RMK A01 T10321051  RH  087%=      5-min Rain = 0
KBR1 140917Z 14009KT M03/M05 A3023 RMK A01 T10321050  RH  087%=      5-min Rain = 0
KBR1 140918Z 15009KT M03/M05 A3023 RMK A01 T10311050  RH  087%=      5-min Rain = 0
KBR1 140919Z 15008KT M03/M05 A3023 RMK A01 T10321051  RH  087%=      5-min Rain = 0
KBR1 140920Z 14009KT M03/M05 A3023 RMK A01 T10321051  RH  087%=      5-min Rain = 0
KBR1 140921Z 15009KT M03/M05 A3023 RMK A01 T10321051  RH  087%=      5-min Rain = 0
KBR1 140922Z 15009KT M03/M05 A3023 RMK A01 T10311050  RH  087%=      5-min Rain = 0
KBR1 140923Z 14008KT M03/M05 A3023 RMK A01 T10321051  RH  087%=      5-min Rain = 0
KBR1 140924Z 14011KT M03/M05 A3023 RMK A01 T10321050  RH  087%=      5-min Rain = 0
KBR1 140925Z 14012KT M03/M05 A3023 RMK A01 T10321050  RH  087%=      5-min Rain = 0
KBR1 140926Z 14010KT M03/M05 A3023 RMK A01 T10321050  RH  088%=      5-min Rain = 0
KBR1 140927Z 15012KT M03/M05 A3023 RMK A01 T10321049  RH  088%=      5-min Rain = 0
KBR1 140928Z 15010KT M03/M05 A3023 RMK A01 T10321049  RH  088%=      5-min Rain = 0
KBR1 140929Z 15011KT M03/M05 A3023 RMK A01 T10331049  RH  088%=      5-min Rain = 0
KBR1 140930Z 15012KT M03/M05 A3023 RMK A01 T10331049  RH  088%=      5-min Rain = 0
KBR1 140931Z 15010KT M03/M05 A3023 RMK A01 T10331049  RH  089%=      5-min Rain = 0
KBR1 140932Z 15011KT M03/M05 A3023 RMK A01 T10331049  RH  089%=      5-min Rain = 0
KBR1 140933Z 15010KT M03/M05 A3022 RMK A01 T10331049  RH  089%=      5-min Rain = 0
KBR1 140934Z 15008KT M03/M05 A3022 RMK A01 T10331048  RH  089%=      5-min Rain = 0
KBR1 140935Z 14008KT M03/M05 A3022 RMK A01 T10331048  RH  089%=      5-min Rain = 0
KBR1 140936Z 14009KT M03/M05 A3022 RMK A01 T10331048  RH  089%=      5-min Rain = 0
KBR1 140937Z 14007KT M03/M05 A3022 RMK A01 T10331049  RH  089%=      5-min Rain = 0
KBR1 140938Z 14007KT M03/M05 A3022 RMK A01 T10331049  RH  089%=      5-min Rain = 0
KBR1 140939Z 15008KT M03/M05 A3022 RMK A01 T10331049  RH  089%=      5-min Rain = 0
KBR1 140940Z 15007KT M03/M05 A3022 RMK A01 T10331049  RH  089%=      5-min Rain = 0
KBR1 140941Z 14008KT M03/M05 A3022 RMK A01 T10331049  RH  089%=      5-min Rain = 0
KBR1 140942Z 14010KT M03/M05 A3022 RMK A01 T10331049  RH  089%=      5-min Rain = 0
KBR1 140943Z 15009KT M03/M05 A3022 RMK A01 T10331049  RH  089%=      5-min Rain = 0
KBR1 140944Z 14008KT M03/M05 A3022 RMK A01 T10331049  RH  089%=      5-min Rain = 0
KBR1 140945Z 14008KT M03/M05 A3022 RMK A01 T10331048  RH  089%=      5-min Rain = 0
KBR1 140946Z 15008KT M03/M05 A3022 RMK A01 T10331048  RH  090%=      5-min Rain = 0
KBR1 140947Z 15008KT M03/M05 A3022 RMK A01 T10331048  RH  090%=      5-min Rain = 0
KBR1 140948Z 15006KT M03/M05 A3022 RMK A01 T10331047  RH  090%=      5-min Rain = 0
KBR1 140949Z 15009KT M03/M05 A3022 RMK A01 T10331047  RH  090%=      5-min Rain = 0
KBR1 140950Z 15009KT M03/M05 A3022 RMK A01 T10331047  RH  090%=      5-min Rain = 0
KBR1 140951Z 15010KT M03/M05 A3022 RMK A01 T10331046  RH  091%=      5-min Rain = 0
KBR1 140952Z 14007KT M03/M05 A3022 RMK A01 T10331046  RH  091%=      5-min Rain = 0
KBR1 140953Z 14008KT M03/M05 A3022 RMK A01 T10341046  RH  091%=      5-min Rain = 0
KBR1 140954Z 14007KT M03/M05 A3022 RMK A01 T10331046  RH  091%=      5-min Rain = 0
KBR1 140955Z 14008KT M03/M05 A3022 RMK A01 T10341046  RH  091%=      5-min Rain = 0
KBR1 140956Z 15009KT M03/M05 A3022 RMK A01 T10331046  RH  091%=      5-min Rain = 0
KBR1 140957Z 14007KT M03/M05 A3022 RMK A01 T10341046  RH  091%=      5-min Rain = 0
KBR1 140958Z 15009KT M03/M05 A3022 RMK A01 T10341045  RH  092%=      5-min Rain = 0
KBR1 140959Z 15009KT M03/M05 A3022 RMK A01 T10341046  RH  092%=      5-min Rain = 0
KBR1 141000Z 15009KT M03/M05 A3022 RMK A01 T10341045  RH  092%=      5-min Rain = 0
KBR1 141001Z 14008KT M03/M05 A3022 RMK A01 T10341045  RH  092%=      5-min Rain = 0
KBR1 141002Z 14007KT M03/M05 A3022 RMK A01 T10341045  RH  092%=      5-min Rain = 0
KBR1 141003Z 14006KT M03/M05 A3022 RMK A01 T10341045  RH  092%=      5-min Rain = 0
KBR1 141004Z 15008KT M03/M05 A3022 RMK A01 T10341045  RH  092%=      5-min Rain = 0
KBR1 141005Z 14008KT M03/M05 A3022 RMK A01 T10341045  RH  092%=      5-min Rain = 0
KBR1 141006Z 14008KT M03/M05 A3022 RMK A01 T10341045  RH  092%=      5-min Rain = 0
KBR1 141007Z 14009KT M03/M05 A3022 RMK A01 T10341045  RH  092%=      5-min Rain = 0
KBR1 141008Z 14008KT M03/M05 A3022 RMK A01 T10341045  RH  092%=      5-min Rain = 0
KBR1 141009Z 14007KT M03/M05 A3021 RMK A01 T10341045  RH  092%=      5-min Rain = 0
KBR1 141010Z 14007KT M03/M04 A3021 RMK A01 T10341044  RH  093%=      5-min Rain = 0
KBR1 141011Z 14008KT M03/M04 A3021 RMK A01 T10341044  RH  093%=      5-min Rain = 0
KBR1 141012Z 14009KT M03/M04 A3021 RMK A01 T10341044  RH  093%=      5-min Rain = 0
KBR1 141013Z 14009KT M03/M04 A3021 RMK A01 T10341044  RH  093%=      5-min Rain = 0
KBR1 141014Z 14007KT M03/M04 A3021 RMK A01 T10341044  RH  093%=      5-min Rain = 0
KBR1 141015Z 14007KT M03/M04 A3021 RMK A01 T10341044  RH  093%=      5-min Rain = 0
KBR1 141016Z 14007KT M03/M04 A3021 RMK A01 T10341043  RH  093%=      5-min Rain = 0
KBR1 141017Z 14006KT M03/M04 A3021 RMK A01 T10331043  RH  093%=      5-min Rain = 0
KBR1 141018Z 14008KT M03/M04 A3021 RMK A01 T10331043  RH  093%=      5-min Rain = 0
KBR1 141019Z 14009KT M03/M04 A3021 RMK A01 T10341043  RH  093%=      5-min Rain = 0
KBR1 141020Z 14007KT M03/M04 A3021 RMK A01 T10331042  RH  094%=      5-min Rain = 0
KBR1 141021Z 14007KT M03/M04 A3021 RMK A01 T10341042  RH  094%=      5-min Rain = 0
KBR1 141022Z 14009KT M03/M04 A3021 RMK A01 T10341042  RH  094%=      5-min Rain = 0
KBR1 141023Z 14009KT M03/M04 A3021 RMK A01 T10341042  RH  094%=      5-min Rain = 0
KBR1 141024Z 14009KT M03/M04 A3021 RMK A01 T10331041  RH  094%=      5-min Rain = 0
KBR1 141025Z 14009KT M03/M04 A3021 RMK A01 T10341041  RH  095%=      5-min Rain = 0
KBR1 141026Z 14008KT M03/M04 A3021 RMK A01 T10331041  RH  095%=      5-min Rain = 0
KBR1 141027Z 14008KT M03/M04 A3021 RMK A01 T10331040  RH  095%=      5-min Rain = 0
KBR1 141028Z 14008KT M03/M04 A3021 RMK A01 T10341040  RH  095%=      5-min Rain = 0
KBR1 141029Z 14009KT M03/M04 A3021 RMK A01 T10341040  RH  095%=      5-min Rain = 0
KBR1 141030Z 14008KT M03/M04 A3021 RMK A01 T10341040  RH  095%=      5-min Rain = 0
KBR1 141031Z 14008KT M03/M04 A3021 RMK A01 T10341040  RH  095%=      5-min Rain = 0
KBR1 141032Z 14009KT M03/M04 A3021 RMK A01 T10331039  RH  096%=      5-min Rain = 0
KBR1 141033Z 14008KT M03/M04 A3021 RMK A01 T10341040  RH  096%=      5-min Rain = 0
KBR1 141034Z 15007KT M03/M04 A3021 RMK A01 T10341039  RH  096%=      5-min Rain = 0
KBR1 141035Z 15007KT M03/M04 A3021 RMK A01 T10341039  RH  096%=      5-min Rain = 0
KBR1 141036Z 14008KT M03/M04 A3021 RMK A01 T10341039  RH  096%=      5-min Rain = 0
KBR1 141037Z 15008KT M03/M04 A3021 RMK A01 T10341039  RH  096%=      5-min Rain = 0
KBR1 141038Z 14008KT M03/M04 A3021 RMK A01 T10341039  RH  096%=      5-min Rain = 0
KBR1 141039Z 14009KT M03/M04 A3021 RMK A01 T10331038  RH  096%=      5-min Rain = 0
KBR1 141040Z 14009KT M03/M04 A3021 RMK A01 T10331038  RH  097%=      5-min Rain = 0
KBR1 141041Z 14008KT M03/M04 A3021 RMK A01 T10341038  RH  097%=      5-min Rain = 0
KBR1 141042Z 15007KT M03/M04 A3021 RMK A01 T10331038  RH  097%=      5-min Rain = 0
KBR1 141043Z 14008KT M03/M04 A3021 RMK A01 T10331038  RH  097%=      5-min Rain = 0
KBR1 141044Z 14008KT M03/M04 A3021 RMK A01 T10331037  RH  097%=      5-min Rain = 0
KBR1 141045Z 14008KT M03/M04 A3021 RMK A01 T10331037  RH  097%=      5-min Rain = 0
KBR1 141046Z 14008KT M03/M04 A3021 RMK A01 T10331037  RH  097%=      5-min Rain = 0
KBR1 141047Z 14008KT M03/M04 A3021 RMK A01 T10331037  RH  097%=      5-min Rain = 0
KBR1 141048Z 14007KT M03/M04 A302 RMK A01 T10331037  RH  097%=      5-min Rain = 0
KBR1 141049Z 15007KT M03/M04 A302 RMK A01 T10331037  RH  097%=      5-min Rain = 0
KBR1 141050Z 15007KT M03/M04 A302 RMK A01 T10331037  RH  097%=      5-min Rain = 0
KBR1 141051Z 14007KT M03/M04 A302 RMK A01 T10321036  RH  097%=      5-min Rain = 0
KBR1 141052Z 15009KT M03/M04 A302 RMK A01 T10321036  RH  097%=      5-min Rain = 0
KBR1 141053Z 15009KT M03/M04 A302 RMK A01 T10321036  RH  097%=      5-min Rain = 0
KBR1 141054Z 15008KT M03/M04 A302 RMK A01 T10321036  RH  097%=      5-min Rain = 0
KBR1 141055Z 14008KT M03/M04 A302 RMK A01 T10321035  RH  097%=      5-min Rain = 0
KBR1 141056Z 14009KT M03/M04 A302 RMK A01 T10321035  RH  097%=      5-min Rain = 0
KBR1 141057Z 14009KT M03/M04 A302 RMK A01 T10321035  RH  098%=      5-min Rain = 0
KBR1 141058Z 14009KT M03/M04 A302 RMK A01 T10321035  RH  098%=      5-min Rain = 0
KBR1 141059Z 14007KT M03/M04 A302 RMK A01 T10311035  RH  098%=      5-min Rain = 0
KBR1 141100Z 14009KT M03/M04 A302 RMK A01 T10321035  RH  098%=      5-min Rain = 0
KBR1 141101Z 14008KT M03/M04 A302 RMK A01 T10311035  RH  098%=      5-min Rain = 0
KBR1 141102Z 14007KT M03/M04 A302 RMK A01 T10311035  RH  098%=      5-min Rain = 0
KBR1 141103Z 14006KT M03/M03 A302 RMK A01 T10311034  RH  098%=      5-min Rain = 0
KBR1 141104Z 14007KT M03/M03 A302 RMK A01 T10311034  RH  098%=      5-min Rain = 0
KBR1 141105Z 14005KT M03/M03 A302 RMK A01 T10301034  RH  098%=      5-min Rain = 0
KBR1 141106Z 15006KT M03/M03 A302 RMK A01 T10301033  RH  098%=      5-min Rain = 0
KBR1 141107Z 14007KT M03/M03 A302 RMK A01 T10301033  RH  098%=      5-min Rain = 0
KBR1 141108Z 14010KT M03/M03 A302 RMK A01 T10301033  RH  098%=      5-min Rain = 0
KBR1 141109Z 15008KT M03/M03 A302 RMK A01 T10301033  RH  098%=      5-min Rain = 0
KBR1 141110Z 15007KT M03/M03 A302 RMK A01 T10291032  RH  098%=      5-min Rain = 0
KBR1 141111Z 15007KT M03/M03 A302 RMK A01 T10291032  RH  098%=      5-min Rain = 0
KBR1 141112Z 14006KT M03/M03 A302 RMK A01 T10291031  RH  098%=      5-min Rain = 0
KBR1 141113Z 14006KT M03/M03 A302 RMK A01 T10281031  RH  098%=      5-min Rain = 0
KBR1 141114Z 15005KT M03/M03 A302 RMK A01 T10281031  RH  098%=      5-min Rain = 0
KBR1 141115Z 15006KT M03/M03 A302 RMK A01 T10271030  RH  098%=      5-min Rain = 0
KBR1 141116Z 15006KT M03/M03 A302 RMK A01 T10271030  RH  098%=      5-min Rain = 0
KBR1 141117Z 15006KT M03/M03 A302 RMK A01 T10271030  RH  098%=      5-min Rain = 0
KBR1 141118Z 16009KT M03/M03 A302 RMK A01 T10271029  RH  098%=      5-min Rain = 0
KBR1 141119Z 15008KT M03/M03 A302 RMK A01 T10271029  RH  098%=      5-min Rain = 0
KBR1 141120Z 15008KT M03/M03 A302 RMK A01 T10271029  RH  098%=      5-min Rain = 0
KBR1 141121Z 16009KT M03/M03 A3019 RMK A01 T10261029  RH  098%=      5-min Rain = 0
KBR1 141122Z 16008KT M03/M03 A3019 RMK A01 T10261029  RH  098%=      5-min Rain = 0
KBR1 141123Z 16007KT M03/M03 A3019 RMK A01 T10261029  RH  098%=      5-min Rain = 0
KBR1 141124Z 16008KT M03/M03 A3019 RMK A01 T10261029  RH  098%=      5-min Rain = 0
KBR1 141125Z 16008KT M03/M03 A3019 RMK A01 T10261028  RH  098%=      5-min Rain = 0
KBR1 141126Z 16010KT M03/M03 A3019 RMK A01 T10261028  RH  098%=      5-min Rain = 0
KBR1 141127Z 16009KT M03/M03 A3019 RMK A01 T10261028  RH  098%=      5-min Rain = 0
KBR1 141128Z 15009KT M03/M03 A3019 RMK A01 T10261028  RH  098%=      5-min Rain = 0
KBR1 141129Z 16010KT M03/M03 A3019 RMK A01 T10261028  RH  098%=      5-min Rain = 0
KBR1 141130Z 16010KT M03/M03 A3019 RMK A01 T10261028  RH  098%=      5-min Rain = 0
KBR1 141131Z 16008KT M03/M03 A3019 RMK A01 T10261028  RH  098%=      5-min Rain = 0
KBR1 141132Z 16007KT M03/M03 A3019 RMK A01 T10251028  RH  098%=      5-min Rain = 0
KBR1 141133Z 16007KT M03/M03 A3019 RMK A01 T10251027  RH  098%=      5-min Rain = 0
KBR1 141134Z 15008KT M03/M03 A3019 RMK A01 T10251027  RH  098%=      5-min Rain = 0
KBR1 141135Z 16008KT M03/M03 A3019 RMK A01 T10251027  RH  098%=      5-min Rain = 0
KBR1 141136Z 15009KT M03/M03 A3019 RMK A01 T10251027  RH  098%=      5-min Rain = 0
KBR1 141137Z 15009KT M03/M03 A3019 RMK A01 T10251027  RH  098%=      5-min Rain = 0
KBR1 141138Z 15007KT M03/M03 A3019 RMK A01 T10251027  RH  098%=      5-min Rain = 0
KBR1 141139Z 15009KT M03/M03 A3019 RMK A01 T10251027  RH  098%=      5-min Rain = 0
KBR1 141140Z 16009KT M03/M03 A3019 RMK A01 T10251027  RH  098%=      5-min Rain = 0
KBR1 141141Z 16008KT M02/M03 A3019 RMK A01 T10241027  RH  098%=      5-min Rain = 0
KBR1 141142Z 16007KT M02/M03 A3019 RMK A01 T10241027  RH  098%=      5-min Rain = 0
KBR1 141143Z 15006KT M02/M03 A3019 RMK A01 T10241026  RH  098%=      5-min Rain = 0
KBR1 141144Z 16007KT M02/M03 A3019 RMK A01 T10241026  RH  098%=      5-min Rain = 0
KBR1 141145Z 16007KT M02/M03 A3019 RMK A01 T10241026  RH  098%=      5-min Rain = 0
KBR1 141146Z 16008KT M02/M03 A3019 RMK A01 T10241026  RH  098%=      5-min Rain = 0
KBR1 141147Z 16007KT M02/M03 A3019 RMK A01 T10241026  RH  098%=      5-min Rain = 0
KBR1 141148Z 16008KT M02/M03 A3019 RMK A01 T10241026  RH  098%=      5-min Rain = 0
KBR1 141149Z 16008KT M02/M03 A3019 RMK A01 T10231026  RH  098%=      5-min Rain = 0
KBR1 141150Z 16009KT M02/M03 A3019 RMK A01 T10231026  RH  098%=      5-min Rain = 0
KBR1 141151Z 16007KT M02/M03 A3019 RMK A01 T10231026  RH  098%=      5-min Rain = 0
KBR1 141152Z 16007KT M02/M03 A3019 RMK A01 T10231026  RH  098%=      5-min Rain = 0
KBR1 141153Z 15006KT M02/M03 A3019 RMK A01 T10231025  RH  098%=      5-min Rain = 0
KBR1 141154Z 16008KT M02/M03 A3019 RMK A01 T10231025  RH  098%=      5-min Rain = 0
KBR1 141155Z 16009KT M02/M03 A3019 RMK A01 T10231025  RH  098%=      5-min Rain = 0
KBR1 141156Z 15007KT M02/M03 A3019 RMK A01 T10231025  RH  098%=      5-min Rain = 0
KBR1 141157Z 16008KT M02/M03 A3019 RMK A01 T10221025  RH  098%=      5-min Rain = 0
KBR1 141158Z 16008KT M02/M03 A3019 RMK A01 T10221025  RH  098%=      5-min Rain = 0
KBR1 141159Z 16007KT M02/M02 A3019 RMK A01 T10221024  RH  098%=      5-min Rain = 0
KBR1 141200Z 17011KT M02/M02 A3019 RMK A01 T10221024  RH  098%=      5-min Rain = 0
KBR1 141201Z 17009KT M02/M02 A3019 RMK A01 T10211023  RH  098%=      5-min Rain = 0
KBR1 141202Z 16007KT M02/M02 A3019 RMK A01 T10211023  RH  098%=      5-min Rain = 0
KBR1 141203Z 17007KT M02/M02 A3019 RMK A01 T10211023  RH  098%=      5-min Rain = 0
KBR1 141204Z 17008KT M02/M02 A3019 RMK A01 T10211023  RH  099%=      5-min Rain = 0
KBR1 141205Z 16008KT M02/M02 A3019 RMK A01 T10201023  RH  099%=      5-min Rain = 0
KBR1 141206Z 18009KT M02/M02 A3019 RMK A01 T10201022  RH  099%=      5-min Rain = 0
KBR1 141207Z 17010KT M02/M02 A3019 RMK A01 T10201022  RH  098%=      5-min Rain = 0
KBR1 141208Z 17010KT M02/M02 A3019 RMK A01 T10191021  RH  099%=      5-min Rain = 0
KBR1 141209Z 17010KT M02/M02 A3019 RMK A01 T10201022  RH  099%=      5-min Rain = 0
KBR1 141210Z 17009KT M02/M02 A3019 RMK A01 T10191021  RH  099%=      5-min Rain = 0
KBR1 141211Z 17009KT M02/M02 A3019 RMK A01 T10191021  RH  099%=      5-min Rain = 0
KBR1 141212Z 17010KT M02/M02 A3019 RMK A01 T10191021  RH  099%=      5-min Rain = 0
KBR1 141213Z 17009KT M02/M02 A3019 RMK A01 T10191021  RH  099%=      5-min Rain = 0
KBR1 141214Z 17010KT M02/M02 A3019 RMK A01 T10181020  RH  099%=      5-min Rain = 0
KBR1 141215Z 18010KT M02/M02 A3019 RMK A01 T10191021  RH  099%=      5-min Rain = 0
KBR1 141216Z 17010KT M02/M02 A3019 RMK A01 T10181020  RH  099%=      5-min Rain = 0
KBR1 141217Z 17010KT M02/M02 A3019 RMK A01 T10191021  RH  099%=      5-min Rain = 0
KBR1 141218Z 17009KT M02/M02 A3019 RMK A01 T10191021  RH  098%=      5-min Rain = 0
KBR1 141219Z 17010KT M02/M02 A3019 RMK A01 T10181021  RH  098%=      5-min Rain = 0
KBR1 141220Z 17009KT M02/M02 A3019 RMK A01 T10181020  RH  099%=      5-min Rain = 0
KBR1 141221Z 17011KT M02/M02 A3019 RMK A01 T10191021  RH  098%=      5-min Rain = 0
KBR1 141222Z 17011KT M02/M02 A3019 RMK A01 T10191021  RH  098%=      5-min Rain = 0
KBR1 141223Z 17009KT M02/M02 A3019 RMK A01 T10181021  RH  098%=      5-min Rain = 0
KBR1 141224Z 17011KT M02/M02 A3019 RMK A01 T10191021  RH  098%=      5-min Rain = 0
KBR1 141225Z 17010KT M02/M02 A3019 RMK A01 T10191021  RH  098%=      5-min Rain = 0
KBR1 141226Z 17011KT M02/M02 A3019 RMK A01 T10191021  RH  098%=      5-min Rain = 0
KBR1 141227Z 18009KT M02/M02 A3019 RMK A01 T10191021  RH  098%=      5-min Rain = 0
KBR1 141228Z 18008KT M02/M02 A3019 RMK A01 T10181021  RH  098%=      5-min Rain = 0
KBR1 141229Z 18008KT M02/M02 A3019 RMK A01 T10191021  RH  098%=      5-min Rain = 0
KBR1 141230Z 18008KT M02/M02 A3019 RMK A01 T10191021  RH  098%=      5-min Rain = 0
KBR1 141231Z 18010KT M02/M02 A3019 RMK A01 T10181021  RH  098%=      5-min Rain = 0
KBR1 141232Z 18011KT M02/M02 A3019 RMK A01 T10191021  RH  098%=      5-min Rain = 0
KBR1 141233Z 18013KT M02/M02 A3019 RMK A01 T10191021  RH  098%=      5-min Rain = 0
KBR1 141234Z 18012KT M02/M02 A3019 RMK A01 T10191021  RH  098%=      5-min Rain = 0
KBR1 141235Z 18009KT M02/M02 A3019 RMK A01 T10181021  RH  098%=      5-min Rain = 0
KBR1 141236Z 18011KT M02/M02 A3019 RMK A01 T10191021  RH  098%=      5-min Rain = 0
KBR1 141237Z 18011KT M02/M02 A3019 RMK A01 T10181020  RH  098%=      5-min Rain = 0
KBR1 141238Z 18010KT M02/M02 A3019 RMK A01 T10181021  RH  098%=      5-min Rain = 0
KBR1 141239Z 18011KT M02/M02 A3019 RMK A01 T10181020  RH  098%=      5-min Rain = 0
KBR1 141240Z 18010KT M02/M02 A3019 RMK A01 T10181020  RH  098%=      5-min Rain = 0
KBR1 141241Z 18010KT M02/M02 A3019 RMK A01 T10181021  RH  098%=      5-min Rain = 0
KBR1 141242Z 17009KT M02/M02 A3019 RMK A01 T10181020  RH  098%=      5-min Rain = 0
KBR1 141243Z 18009KT M02/M02 A3019 RMK A01 T10181020  RH  098%=      5-min Rain = 0
KBR1 141244Z 18010KT M02/M02 A3019 RMK A01 T10181020  RH  098%=      5-min Rain = 0
KBR1 141245Z 18009KT M02/M02 A3019 RMK A01 T10181021  RH  098%=      5-min Rain = 0
KBR1 141246Z 18010KT M02/M02 A3019 RMK A01 T10181020  RH  098%=      5-min Rain = 0
KBR1 141247Z 18011KT M02/M02 A3019 RMK A01 T10181020  RH  098%=      5-min Rain = 0
KBR1 141248Z 18011KT M02/M02 A3019 RMK A01 T10181021  RH  098%=      5-min Rain = 0
KBR1 141249Z 18010KT M02/M02 A3019 RMK A01 T10181020  RH  098%=      5-min Rain = 0
KBR1 141250Z 18011KT M02/M02 A3019 RMK A01 T10181020  RH  098%=      5-min Rain = 0
KBR1 141251Z 18010KT M02/M02 A3019 RMK A01 T10171020  RH  098%=      5-min Rain = 0
KBR1 141252Z 18010KT M02/M02 A3019 RMK A01 T10181020  RH  098%=      5-min Rain = 0
KBR1 141253Z 19010KT M02/M02 A3019 RMK A01 T10181020  RH  098%=      5-min Rain = 0
KBR1 141254Z 18010KT M02/M02 A3019 RMK A01 T10181020  RH  098%=      5-min Rain = 0
KBR1 141255Z 18008KT M02/M02 A3019 RMK A01 T10181020  RH  098%=      5-min Rain = 0
KBR1 141256Z 18010KT M02/M02 A3019 RMK A01 T10171020  RH  098%=      5-min Rain = 0
KBR1 141257Z 18008KT M02/M02 A3019 RMK A01 T10171020  RH  098%=      5-min Rain = 0
KBR1 141258Z 18008KT M02/M02 A3019 RMK A01 T10171019  RH  098%=      5-min Rain = 0
KBR1 141259Z 18011KT M02/M02 A3019 RMK A01 T10171019  RH  098%=      5-min Rain = 0
KBR1 141300Z 18010KT M02/M02 A3019 RMK A01 T10171019  RH  098%=      5-min Rain = 0
KBR1 141301Z 18010KT M02/M02 A3019 RMK A01 T10171019  RH  098%=      5-min Rain = 0
KBR1 141302Z 18010KT M02/M02 A3019 RMK A01 T10171019  RH  098%=      5-min Rain = 0
KBR1 141303Z 18009KT M02/M02 A3019 RMK A01 T10171019  RH  098%=      5-min Rain = 0
KBR1 141304Z 18010KT M02/M02 A3019 RMK A01 T10171019  RH  098%=      5-min Rain = 0
KBR1 141305Z 18010KT M02/M02 A3019 RMK A01 T10171019  RH  098%=      5-min Rain = 0
KBR1 141306Z 18010KT M02/M02 A3019 RMK A01 T10161019  RH  098%=      5-min Rain = 0
KBR1 141307Z 17011KT M02/M02 A3019 RMK A01 T10161019  RH  098%=      5-min Rain = 0
KBR1 141308Z 18010KT M02/M02 A3019 RMK A01 T10161019  RH  098%=      5-min Rain = 0
KBR1 141309Z 18012KT M02/M02 A3019 RMK A01 T10161019  RH  098%=      5-min Rain = 0
KBR1 141310Z 18011KT M02/M02 A3019 RMK A01 T10161019  RH  098%=      5-min Rain = 0
KBR1 141311Z 18010KT M02/M02 A3019 RMK A01 T10161019  RH  098%=      5-min Rain = 0
KBR1 141312Z 18010KT M02/M02 A3019 RMK A01 T10161019  RH  098%=      5-min Rain = 0
KBR1 141313Z 18011KT M02/M02 A3019 RMK A01 T10161019  RH  098%=      5-min Rain = 0
KBR1 141314Z 18010KT M02/M02 A3019 RMK A01 T10161019  RH  098%=      5-min Rain = 0
KBR1 141315Z 18010KT M02/M02 A3019 RMK A01 T10161019  RH  098%=      5-min Rain = 0
KBR1 141316Z 18010KT M02/M02 A3019 RMK A01 T10161019  RH  098%=      5-min Rain = 0
KBR1 141317Z 18011KT M02/M02 A3019 RMK A01 T10151018  RH  098%=      5-min Rain = 0
KBR1 141318Z 18009KT M02/M02 A3019 RMK A01 T10161019  RH  098%=      5-min Rain = 0
KBR1 141319Z 18010KT M02/M02 A3019 RMK A01 T10151018  RH  098%=      5-min Rain = 0
KBR1 141320Z 18010KT M02/M02 A3019 RMK A01 T10151018  RH  098%=      5-min Rain = 0
KBR1 141321Z 18011KT M02/M02 A3019 RMK A01 T10151018  RH  098%=      5-min Rain = 0
KBR1 141322Z 18011KT M02/M02 A3019 RMK A01 T10151018  RH  098%=      5-min Rain = 0
KBR1 141323Z 18011KT M02/M02 A3019 RMK A01 T10151018  RH  098%=      5-min Rain = 0
KBR1 141324Z 18011KT M02/M02 A3019 RMK A01 T10151018  RH  098%=      5-min Rain = 0
KBR1 141325Z 18010KT M01/M02 A3019 RMK A01 T10141018  RH  098%=      5-min Rain = 0
KBR1 141326Z 18010KT M01/M02 A3019 RMK A01 T10141018  RH  098%=      5-min Rain = 0
KBR1 141327Z 18010KT M01/M02 A3019 RMK A01 T10141018  RH  098%=      5-min Rain = 0
KBR1 141328Z 18011KT M01/M02 A3019 RMK A01 T10141017  RH  098%=      5-min Rain = 0
KBR1 141329Z 18011KT M01/M02 A3019 RMK A01 T10141017  RH  097%=      5-min Rain = 0
KBR1 141330Z 18009KT M01/M02 A3019 RMK A01 T10141018  RH  097%=      5-min Rain = 0
KBR1 141331Z 18011KT M01/M02 A3019 RMK A01 T10141017  RH  097%=      5-min Rain = 0
KBR1 141332Z 18010KT M01/M02 A3019 RMK A01 T10141017  RH  097%=      5-min Rain = 0
KBR1 141333Z 18011KT M01/M02 A3019 RMK A01 T10141017  RH  097%=      5-min Rain = 0
KBR1 141334Z 18010KT M01/M02 A3019 RMK A01 T10131017  RH  097%=      5-min Rain = 0
KBR1 141335Z 18011KT M01/M02 A3019 RMK A01 T10131017  RH  097%=      5-min Rain = 0
KBR1 141336Z 18011KT M01/M02 A3019 RMK A01 T10131017  RH  097%=      5-min Rain = 0
KBR1 141337Z 18010KT M01/M02 A3019 RMK A01 T10131017  RH  097%=      5-min Rain = 0
KBR1 141338Z 18010KT M01/M02 A3019 RMK A01 T10131017  RH  097%=      5-min Rain = 0
KBR1 141339Z 18009KT M01/M02 A3019 RMK A01 T10131017  RH  097%=      5-min Rain = 0
KBR1 141340Z 18009KT M01/M02 A3019 RMK A01 T10131017  RH  097%=      5-min Rain = 0
KBR1 141341Z 18011KT M01/M02 A3019 RMK A01 T10121017  RH  097%=      5-min Rain = 0
KBR1 141342Z 18012KT M01/M02 A3019 RMK A01 T10121017  RH  097%=      5-min Rain = 0
KBR1 141343Z 18012KT M01/M02 A3019 RMK A01 T10131017  RH  097%=      5-min Rain = 0
KBR1 141344Z 18010KT M01/M02 A3019 RMK A01 T10131017  RH  097%=      5-min Rain = 0
KBR1 141345Z 18011KT M01/M02 A3019 RMK A01 T10131017  RH  097%=      5-min Rain = 0
KBR1 141346Z 18011KT M01/M02 A3019 RMK A01 T10131017  RH  097%=      5-min Rain = 0
KBR1 141347Z 18012KT M01/M02 A3019 RMK A01 T10121017  RH  097%=      5-min Rain = 0
KBR1 141348Z 18012KT M01/M02 A3019 RMK A01 T10121017  RH  097%=      5-min Rain = 0
KBR1 141349Z 18012KT M01/M02 A3019 RMK A01 T10121017  RH  097%=      5-min Rain = 0
KBR1 141350Z 18012KT M01/M02 A3019 RMK A01 T10121017  RH  096%=      5-min Rain = 0
KBR1 141351Z 18010KT M01/M02 A3019 RMK A01 T10121017  RH  096%=      5-min Rain = 0
KBR1 141352Z 18012KT M01/M02 A3019 RMK A01 T10121017  RH  096%=      5-min Rain = 0
KBR1 141353Z 19013KT M01/M02 A3019 RMK A01 T10121017  RH  096%=      5-min Rain = 0
KBR1 141354Z 18011KT M01/M02 A3019 RMK A01 T10121017  RH  096%=      5-min Rain = 0
KBR1 141355Z 18012KT M01/M02 A3019 RMK A01 T10121017  RH  096%=      5-min Rain = 0
KBR1 141356Z 18012KT M01/M02 A3019 RMK A01 T10121017  RH  096%=      5-min Rain = 0
KBR1 141357Z 18010KT M01/M02 A3019 RMK A01 T10111017  RH  096%=      5-min Rain = 0
KBR1 141358Z 18011KT M01/M02 A3019 RMK A01 T10111017  RH  096%=      5-min Rain = 0
KBR1 141359Z 18013KT M01/M02 A3019 RMK A01 T10111017  RH  096%=      5-min Rain = 0
KBR1 141400Z 18011KT M01/M02 A3019 RMK A01 T10111017  RH  096%=      5-min Rain = 0
KBR1 141401Z 18012KT M01/M02 A3019 RMK A01 T10111017  RH  096%=      5-min Rain = 0
KBR1 141402Z 18013KT M01/M02 A3019 RMK A01 T10111017  RH  096%=      5-min Rain = 0
KBR1 141403Z 18013KT M01/M02 A3019 RMK A01 T10111017  RH  096%=      5-min Rain = 0
KBR1 141404Z 18013KT M01/M02 A3019 RMK A01 T10111017  RH  096%=      5-min Rain = 0
KBR1 141405Z 18011KT M01/M02 A3019 RMK A01 T10111017  RH  095%=      5-min Rain = 0
KBR1 141406Z 18011KT M01/M02 A3019 RMK A01 T10111017  RH  095%=      5-min Rain = 0
KBR1 141407Z 18010KT M01/M02 A3019 RMK A01 T10111017  RH  095%=      5-min Rain = 0
KBR1 141408Z 18009KT M01/M02 A3019 RMK A01 T10101017  RH  096%=      5-min Rain = 0
KBR1 141409Z 18010KT M01/M02 A3019 RMK A01 T10101017  RH  096%=      5-min Rain = 0
KBR1 141410Z 19010KT M01/M02 A3019 RMK A01 T10101016  RH  096%=      5-min Rain = 0
KBR1 141411Z 18011KT M01/M02 A3019 RMK A01 T10101016  RH  096%=      5-min Rain = 0
KBR1 141412Z 18011KT M01/M02 A3019 RMK A01 T10101016  RH  096%=      5-min Rain = 0
KBR1 141413Z 18010KT M01/M02 A3019 RMK A01 T10101017  RH  096%=      5-min Rain = 0
KBR1 141414Z 18010KT M01/M02 A3019 RMK A01 T10101016  RH  096%=      5-min Rain = 0
KBR1 141415Z 18009KT M01/M02 A3019 RMK A01 T10101016  RH  096%=      5-min Rain = 0
KBR1 141416Z 18012KT M01/M02 A3019 RMK A01 T10101016  RH  096%=      5-min Rain = 0
KBR1 141417Z 18013KT M01/M02 A3019 RMK A01 T10101016  RH  096%=      5-min Rain = 0
KBR1 141418Z 19012KT M01/M02 A3019 RMK A01 T10101016  RH  096%=      5-min Rain = 0
KBR1 141419Z 19012KT M01/M02 A3019 RMK A01 T10101016  RH  096%=      5-min Rain = 0
KBR1 141420Z 18012KT M01/M02 A3019 RMK A01 T10101016  RH  095%=      5-min Rain = 0
KBR1 141421Z 18011KT M01/M02 A3019 RMK A01 T10101016  RH  095%=      5-min Rain = 0
KBR1 141422Z 18010KT M01/M02 A3019 RMK A01 T10091016  RH  095%=      5-min Rain = 0
KBR1 141423Z 19010KT M01/M02 A3019 RMK A01 T10091016  RH  095%=      5-min Rain = 0
KBR1 141424Z 19012KT M01/M02 A3019 RMK A01 T10091016  RH  095%=      5-min Rain = 0
KBR1 141425Z 18012KT M01/M02 A3019 RMK A01 T10091016  RH  095%=      5-min Rain = 0
KBR1 141426Z 19011KT M01/M02 A3019 RMK A01 T10091016  RH  095%=      5-min Rain = 0
KBR1 141427Z 19010KT M01/M02 A3019 RMK A01 T10091016  RH  095%=      5-min Rain = 0
KBR1 141428Z 19011KT M01/M02 A3019 RMK A01 T10091015  RH  095%=      5-min Rain = 0
KBR1 141429Z 19010KT M01/M02 A3019 RMK A01 T10091015  RH  095%=      5-min Rain = 0
KBR1 141430Z 19011KT M01/M02 A3019 RMK A01 T10091015  RH  095%=      5-min Rain = 0
KBR1 141431Z 19010KT M01/M02 A3019 RMK A01 T10091015  RH  095%=      5-min Rain = 0
KBR1 141432Z 18010KT M01/M02 A3019 RMK A01 T10091015  RH  095%=      5-min Rain = 0
KBR1 141433Z 19010KT M01/M02 A3019 RMK A01 T10081015  RH  095%=      5-min Rain = 0
KBR1 141434Z 18010KT M01/M02 A3019 RMK A01 T10091015  RH  095%=      5-min Rain = 0
KBR1 141435Z 19010KT M01/M02 A3019 RMK A01 T10091015  RH  095%=      5-min Rain = 0
KBR1 141436Z 19010KT M01/M02 A3019 RMK A01 T10081015  RH  095%=      5-min Rain = 0
KBR1 141437Z 19011KT M01/M01 A3019 RMK A01 T10081014  RH  095%=      5-min Rain = 0
KBR1 141438Z 19011KT M01/M02 A3019 RMK A01 T10081015  RH  095%=      5-min Rain = 0
KBR1 141439Z 19010KT M01/M02 A3019 RMK A01 T10081015  RH  095%=      5-min Rain = 0
KBR1 141440Z 19010KT M01/M02 A3019 RMK A01 T10081015  RH  095%=      5-min Rain = 0
KBR1 141441Z 18010KT M01/M01 A3019 RMK A01 T10081014  RH  095%=      5-min Rain = 0
KBR1 141442Z 19011KT M01/M01 A3019 RMK A01 T10081014  RH  095%=      5-min Rain = 0
KBR1 141443Z 19011KT M01/M01 A3019 RMK A01 T10071014  RH  095%=      5-min Rain = 0
KBR1 141444Z 19010KT M01/M02 A3019 RMK A01 T10081015  RH  095%=      5-min Rain = 0
KBR1 141445Z 19011KT M01/M01 A3019 RMK A01 T10071014  RH  095%=      5-min Rain = 0
KBR1 141446Z 19011KT M01/M01 A3019 RMK A01 T10071014  RH  095%=      5-min Rain = 0
KBR1 141447Z 19011KT M01/M01 A302 RMK A01 T10071014  RH  095%=      5-min Rain = 0
KBR1 141448Z 19011KT M01/M01 A302 RMK A01 T10071014  RH  095%=      5-min Rain = 0
KBR1 141449Z 19010KT M01/M01 A302 RMK A01 T10071014  RH  095%=      5-min Rain = 0
KBR1 141450Z 19009KT M01/M01 A302 RMK A01 T10061014  RH  095%=      5-min Rain = 0
KBR1 141451Z 19011KT M01/M01 A302 RMK A01 T10061013  RH  095%=      5-min Rain = 0
KBR1 141452Z 19010KT M01/M01 A302 RMK A01 T10061014  RH  095%=      5-min Rain = 0
KBR1 141453Z 19010KT M01/M01 A302 RMK A01 T10061013  RH  095%=      5-min Rain = 0
KBR1 141454Z 20010KT M01/M01 A302 RMK A01 T10061013  RH  095%=      5-min Rain = 0
KBR1 141455Z 20011KT M01/M01 A302 RMK A01 T10061013  RH  095%=      5-min Rain = 0
KBR1 141456Z 19011KT M01/M01 A302 RMK A01 T10051013  RH  095%=      5-min Rain = 0
KBR1 141457Z 19010KT M01/M01 A302 RMK A01 T10051013  RH  094%=      5-min Rain = 0
KBR1 141458Z 19010KT M01/M01 A302 RMK A01 T10051013  RH  094%=      5-min Rain = 0
KBR1 141459Z 19009KT M01/M01 A302 RMK A01 T10051013  RH  094%=      5-min Rain = 0
KBR1 141500Z 19011KT M01/M01 A302 RMK A01 T10051013  RH  095%=      5-min Rain = 0
KBR1 141501Z 19010KT M01/M01 A302 RMK A01 T10051013  RH  095%=      5-min Rain = 0
KBR1 141502Z 19009KT M01/M01 A302 RMK A01 T10051013  RH  095%=      5-min Rain = 0
KBR1 141503Z 19012KT M01/M01 A302 RMK A01 T10051013  RH  095%=      5-min Rain = 0
KBR1 141504Z 19011KT M01/M01 A302 RMK A01 T10051013  RH  094%=      5-min Rain = 0
KBR1 141505Z 19011KT M01/M01 A302 RMK A01 T10051013  RH  094%=      5-min Rain = 0
KBR1 141506Z 19010KT M01/M01 A302 RMK A01 T10051013  RH  094%=      5-min Rain = 0
KBR1 141507Z 19010KT M01/M01 A302 RMK A01 T10051013  RH  094%=      5-min Rain = 0
KBR1 141508Z 19010KT M01/M01 A302 RMK A01 T10051013  RH  094%=      5-min Rain = 0
KBR1 141509Z 19010KT M01/M01 A302 RMK A01 T10051013  RH  094%=      5-min Rain = 0
KBR1 141510Z 19009KT M01/M01 A302 RMK A01 T10051013  RH  094%=      5-min Rain = 0
KBR1 141511Z 19010KT M01/M01 A302 RMK A01 T10051013  RH  094%=      5-min Rain = 0
KBR1 141512Z 19010KT M01/M01 A302 RMK A01 T10051013  RH  095%=      5-min Rain = 0
KBR1 141513Z 19010KT M01/M01 A302 RMK A01 T10051012  RH  095%=      5-min Rain = 0
KBR1 141514Z 19010KT M01/M01 A302 RMK A01 T10051013  RH  095%=      5-min Rain = 0
KBR1 141515Z 19010KT M00/M01 A302 RMK A01 T10041012  RH  094%=      5-min Rain = 0
KBR1 141516Z 19012KT M00/M01 A302 RMK A01 T10041012  RH  094%=      5-min Rain = 0
KBR1 141517Z 19011KT M00/M01 A302 RMK A01 T10041012  RH  094%=      5-min Rain = 0
KBR1 141518Z 19010KT M00/M01 A302 RMK A01 T10041012  RH  094%=      5-min Rain = 0
KBR1 141519Z 20010KT M00/M01 A302 RMK A01 T10041012  RH  094%=      5-min Rain = 0
KBR1 141520Z 20011KT M00/M01 A302 RMK A01 T10041012  RH  094%=      5-min Rain = 0
KBR1 141521Z 19012KT M00/M01 A302 RMK A01 T10031012  RH  094%=      5-min Rain = 0
KBR1 141522Z 19011KT M00/M01 A302 RMK A01 T10031012  RH  094%=      5-min Rain = 0
KBR1 141523Z 19012KT M00/M01 A302 RMK A01 T10031012  RH  094%=      5-min Rain = 0
KBR1 141524Z 20011KT M00/M01 A302 RMK A01 T10031012  RH  094%=      5-min Rain = 0
KBR1 141525Z 20011KT M00/M01 A302 RMK A01 T10031012  RH  094%=      5-min Rain = 0
KBR1 141526Z 19009KT M00/M01 A302 RMK A01 T10031012  RH  094%=      5-min Rain = 0
KBR1 141527Z 19009KT M00/M01 A302 RMK A01 T10031012  RH  094%=      5-min Rain = 0
KBR1 141528Z 19010KT M00/M01 A302 RMK A01 T10021011  RH  094%=      5-min Rain = 0
KBR1 141529Z 19011KT M00/M01 A302 RMK A01 T10021011  RH  094%=      5-min Rain = 0
KBR1 141530Z 19010KT M00/M01 A302 RMK A01 T10021012  RH  094%=      5-min Rain = 0
KBR1 141531Z 19008KT M00/M01 A302 RMK A01 T10021011  RH  094%=      5-min Rain = 0
KBR1 141532Z 19009KT M00/M01 A302 RMK A01 T10011010  RH  094%=      5-min Rain = 0
KBR1 141533Z 19010KT M00/M01 A302 RMK A01 T10021011  RH  094%=      5-min Rain = 0
KBR1 141534Z 19010KT M00/M01 A302 RMK A01 T10021011  RH  094%=      5-min Rain = 0
KBR1 141535Z 19008KT M00/M01 A302 RMK A01 T10021011  RH  093%=      5-min Rain = 0
KBR1 141536Z 19009KT M00/M01 A302 RMK A01 T10011011  RH  094%=      5-min Rain = 0
KBR1 141537Z 20010KT M00/M01 A302 RMK A01 T10011010  RH  094%=      5-min Rain = 0
KBR1 141538Z 19010KT M00/M01 A302 RMK A01 T10011010  RH  093%=      5-min Rain = 0
KBR1 141539Z 19009KT M00/M01 A302 RMK A01 T10011011  RH  093%=      5-min Rain = 0
KBR1 141540Z 19009KT M00/M01 A302 RMK A01 T10011011  RH  093%=      5-min Rain = 0
KBR1 141541Z 20009KT 00/01 A302 RMK A01 T00-00-10  RH  093%=      5-min Rain = 0
KBR1 141542Z 19009KT 00/01 A302 RMK A01 T00-00-10  RH  093%=      5-min Rain = 0
KBR1 141543Z 19009KT 00/01 A302 RMK A01 T00-00-10  RH  093%=      5-min Rain = 0
KBR1 141544Z 20009KT 00/01 A302 RMK A01 T00000-10  RH  093%=      5-min Rain = 0
KBR1 141545Z 20009KT 00/01 A302 RMK A01 T00000-10  RH  093%=      5-min Rain = 0
KBR1 141546Z 20009KT 00/M01 A302 RMK A01 T00011009  RH  093%=      5-min Rain = 0
KBR1 141547Z 20010KT 00/M01 A302 RMK A01 T00011009  RH  093%=      5-min Rain = 0
KBR1 141548Z 20009KT 00/M01 A302 RMK A01 T00011009  RH  093%=      5-min Rain = 0
KBR1 141549Z 21010KT 00/M01 A302 RMK A01 T00021009  RH  093%=      5-min Rain = 0
KBR1 141550Z 20009KT 00/M01 A302 RMK A01 T00021009  RH  092%=      5-min Rain = 0
KBR1 141551Z 20009KT 00/M01 A302 RMK A01 T00031008  RH  092%=      5-min Rain = 0
KBR1 141552Z 20007KT 00/M01 A302 RMK A01 T00031008  RH  092%=      5-min Rain = 0
KBR1 141553Z 20008KT 00/M01 A302 RMK A01 T00041007  RH  093%=      5-min Rain = 0
KBR1 141554Z 20008KT 00/M01 A302 RMK A01 T00041007  RH  092%=      5-min Rain = 0
KBR1 141555Z 20009KT 00/M01 A302 RMK A01 T00041008  RH  092%=      5-min Rain = 0
KBR1 141556Z 20009KT 00/M01 A302 RMK A01 T00041008  RH  092%=      5-min Rain = 0
KBR1 141557Z 21010KT 00/M01 A302 RMK A01 T00041008  RH  092%=      5-min Rain = 0
KBR1 141558Z 22011KT 01/M01 A302 RMK A01 T00051007  RH  092%=      5-min Rain = 0
KBR1 141559Z 22011KT 01/M01 A302 RMK A01 T00051007  RH  091%=      5-min Rain = 0
KBR1 141600Z 22010KT 01/M01 A302 RMK A01 T00061007  RH  091%=      5-min Rain = 0
KBR1 141601Z 21011KT 01/M01 A302 RMK A01 T00061007  RH  091%=      5-min Rain = 0
KBR1 141602Z 21009KT 01/M01 A3019 RMK A01 T00071007  RH  090%=      5-min Rain = 0
KBR1 141603Z 21010KT 01/M01 A3019 RMK A01 T00071006  RH  091%=      5-min Rain = 0
KBR1 141604Z 20012KT 01/M01 A3019 RMK A01 T00081006  RH  091%=      5-min Rain = 0
KBR1 141605Z 21010KT 01/M01 A3019 RMK A01 T00071008  RH  090%=      5-min Rain = 0
KBR1 141606Z 22011KT 01/M01 A3019 RMK A01 T00081007  RH  090%=      5-min Rain = 0
KBR1 141607Z 22011KT 01/M01 A3019 RMK A01 T00081007  RH  090%=      5-min Rain = 0
KBR1 141608Z 21011KT 01/M01 A3019 RMK A01 T00081008  RH  089%=      5-min Rain = 0
KBR1 141609Z 21011KT 01/M01 A3019 RMK A01 T00091007  RH  089%=      5-min Rain = 0
KBR1 141610Z 21012KT 01/M01 A3019 RMK A01 T00091007  RH  089%=      5-min Rain = 0
KBR1 141611Z 22014KT 01/M01 A3019 RMK A01 T00091008  RH  089%=      5-min Rain = 0
KBR1 141612Z 22013KT 01/M01 A3019 RMK A01 T00091008  RH  089%=      5-min Rain = 0
KBR1 141613Z 22011KT 01/M01 A3019 RMK A01 T00091008  RH  088%=      5-min Rain = 0
KBR1 141614Z 22011KT 01/M01 A3019 RMK A01 T00091007  RH  089%=      5-min Rain = 0
KBR1 141615Z 21010KT 01/M01 A3019 RMK A01 T00101007  RH  089%=      5-min Rain = 0
KBR1 141616Z 21012KT 01/M01 A3019 RMK A01 T00101006  RH  089%=      5-min Rain = 0
KBR1 141617Z 21011KT 01/M01 A3019 RMK A01 T00111006  RH  088%=      5-min Rain = 0
KBR1 141618Z 21012KT 01/M01 A3019 RMK A01 T00111006  RH  088%=      5-min Rain = 0
KBR1 141619Z 22011KT 01/M01 A3019 RMK A01 T00111007  RH  088%=      5-min Rain = 0
KBR1 141620Z 22010KT 01/M01 A3019 RMK A01 T00111007  RH  088%=      5-min Rain = 0
KBR1 141621Z 22011KT 01/M01 A3019 RMK A01 T00121006  RH  088%=      5-min Rain = 0
KBR1 141622Z 21013KT 01/M01 A3019 RMK A01 T00121006  RH  088%=      5-min Rain = 0
KBR1 141623Z 21011KT 01/M01 A3019 RMK A01 T00121007  RH  087%=      5-min Rain = 0
KBR1 141624Z 21013KT 01/M01 A3018 RMK A01 T00121007  RH  087%=      5-min Rain = 0
KBR1 141625Z 22013KT 01/M01 A3018 RMK A01 T00121007  RH  087%=      5-min Rain = 0
KBR1 141626Z 22012KT 01/M01 A3019 RMK A01 T00131007  RH  087%=      5-min Rain = 0
KBR1 141627Z 22012KT 01/M01 A3018 RMK A01 T00121007  RH  087%=      5-min Rain = 0
KBR1 141628Z 23010KT 01/M01 A3019 RMK A01 T00131007  RH  087%=      5-min Rain = 0
KBR1 141629Z 22011KT 01/M01 A3018 RMK A01 T00141006  RH  087%=      5-min Rain = 0
KBR1 141630Z 22011KT 01/M01 A3018 RMK A01 T00141006  RH  087%=      5-min Rain = 0
KBR1 141631Z 23014KT 02/M01 A3018 RMK A01 T00151005  RH  087%=      5-min Rain = 0
KBR1 141632Z 22012KT 02/M01 A3018 RMK A01 T00151007  RH  086%=      5-min Rain = 0
KBR1 141633Z 22012KT 02/M01 A3018 RMK A01 T00151007  RH  086%=      5-min Rain = 0
KBR1 141634Z 22011KT 02/M01 A3018 RMK A01 T00151007  RH  085%=      5-min Rain = 0
KBR1 141635Z 22012KT 02/M01 A3018 RMK A01 T00151006  RH  086%=      5-min Rain = 0
KBR1 141636Z 23010KT 02/M00 A3018 RMK A01 T00161004  RH  086%=      5-min Rain = 0
KBR1 141637Z 23013KT 02/M00 A3018 RMK A01 T00171004  RH  086%=      5-min Rain = 0
KBR1 141638Z 23012KT 02/M01 A3018 RMK A01 T00171006  RH  085%=      5-min Rain = 0
KBR1 141639Z 23013KT 02/M01 A3018 RMK A01 T00171006  RH  085%=      5-min Rain = 0
KBR1 141640Z 23015KT 02/M01 A3018 RMK A01 T00171006  RH  085%=      5-min Rain = 0
KBR1 141641Z 23013KT 02/M01 A3018 RMK A01 T00171007  RH  085%=      5-min Rain = 0
KBR1 141642Z 23012KT 02/M01 A3018 RMK A01 T00171006  RH  085%=      5-min Rain = 0
KBR1 141643Z 23013KT 02/M01 A3018 RMK A01 T00171006  RH  085%=      5-min Rain = 0
KBR1 141644Z 23012KT 02/M01 A3018 RMK A01 T00171007  RH  084%=      5-min Rain = 0
KBR1 141645Z 23011KT 02/M01 A3018 RMK A01 T00171007  RH  084%=      5-min Rain = 0
KBR1 141646Z 22010KT 02/M00 A3018 RMK A01 T00181004  RH  085%=      5-min Rain = 0
KBR1 141647Z 23011KT 02/M00 A3018 RMK A01 T00191004  RH  085%=      5-min Rain = 0
KBR1 141648Z 23012KT 02/M00 A3018 RMK A01 T00201004  RH  084%=      5-min Rain = 0
KBR1 141649Z 23013KT 02/M01 A3018 RMK A01 T00201006  RH  083%=      5-min Rain = 0
KBR1 141650Z 22011KT 02/M01 A3018 RMK A01 T00201006  RH  083%=      5-min Rain = 0
KBR1 141651Z 23010KT 02/M01 A3018 RMK A01 T00191007  RH  083%=      5-min Rain = 0
KBR1 141652Z 22011KT 02/M01 A3018 RMK A01 T00191005  RH  084%=      5-min Rain = 0
KBR1 141653Z 23012KT 02/M01 A3018 RMK A01 T00191006  RH  083%=      5-min Rain = 0
KBR1 141654Z 22011KT 02/M01 A3018 RMK A01 T00191007  RH  083%=      5-min Rain = 0
KBR1 141655Z 22010KT 02/M01 A3018 RMK A01 T00201006  RH  083%=      5-min Rain = 0
KBR1 141656Z 24012KT 02/M01 A3018 RMK A01 T00211005  RH  083%=      5-min Rain = 0
KBR1 141657Z 23013KT 02/M01 A3018 RMK A01 T00201006  RH  083%=      5-min Rain = 0
KBR1 141658Z 22011KT 02/M01 A3018 RMK A01 T00201006  RH  083%=      5-min Rain = 0
KBR1 141659Z 22010KT 02/M00 A3018 RMK A01 T00211004  RH  083%=      5-min Rain = 0
KBR1 141700Z 22013KT 02/M01 A3018 RMK A01 T00221005  RH  082%=      5-min Rain = 0
KBR1 141701Z 21015KT 02/M01 A3017 RMK A01 T00211007  RH  081%=      5-min Rain = 0
KBR1 141702Z 21015KT 02/M01 A3017 RMK A01 T00211008  RH  081%=      5-min Rain = 0
KBR1 141703Z 20015KT 02/M01 A3017 RMK A01 T00211008  RH  081%=      5-min Rain = 0
KBR1 141704Z 21015KT 02/M01 A3017 RMK A01 T00211008  RH  081%=      5-min Rain = 0
KBR1 141705Z 21015KT 02/M01 A3017 RMK A01 T00221008  RH  081%=      5-min Rain = 0
KBR1 141706Z 21016KT 02/M01 A3017 RMK A01 T00221008  RH  081%=      5-min Rain = 0
KBR1 141707Z 22016KT 02/M01 A3017 RMK A01 T00221009  RH  080%=      5-min Rain = 0
KBR1 141708Z 21014KT 02/M01 A3017 RMK A01 T00221008  RH  081%=      5-min Rain = 0
KBR1 141709Z 21015KT 02/M01 A3017 RMK A01 T00211009  RH  081%=      5-min Rain = 0
KBR1 141710Z 21015KT 02/M01 A3017 RMK A01 T00221008  RH  081%=      5-min Rain = 0
KBR1 141711Z 21015KT 02/M01 A3017 RMK A01 T00221008  RH  081%=      5-min Rain = 0
KBR1 141712Z 21016KT 02/M01 A3017 RMK A01 T00221009  RH  080%=      5-min Rain = 0
KBR1 141713Z 20015KT 02/M01 A3017 RMK A01 T00221008  RH  080%=      5-min Rain = 0
KBR1 141714Z 21015KT 02/M01 A3017 RMK A01 T00221009  RH  080%=      5-min Rain = 0
KBR1 141715Z 21014KT 02/M01 A3017 RMK A01 T00221008  RH  080%=      5-min Rain = 0
KBR1 141716Z 22012KT 02/M01 A3017 RMK A01 T00231007  RH  081%=      5-min Rain = 0
KBR1 141717Z 22015KT 02/M01 A3017 RMK A01 T00241007  RH  080%=      5-min Rain = 0
KBR1 141718Z 22013KT 02/M01 A3017 RMK A01 T00241007  RH  080%=      5-min Rain = 0
KBR1 141719Z 21013KT 03/M01 A3017 RMK A01 T00251006  RH  080%=      5-min Rain = 0
KBR1 141720Z 21014KT 03/M01 A3017 RMK A01 T00261006  RH  079%=      5-min Rain = 0
KBR1 141721Z 22016KT 03/M01 A3017 RMK A01 T00251008  RH  079%=      5-min Rain = 0
KBR1 141722Z 21014KT 02/M01 A3016 RMK A01 T00241008  RH  079%=      5-min Rain = 0
KBR1 141723Z 22015KT 02/M01 A3017 RMK A01 T00241007  RH  079%=      5-min Rain = 0
KBR1 141724Z 22013KT 02/M01 A3017 RMK A01 T00241008  RH  079%=      5-min Rain = 0
KBR1 141725Z 22013KT 03/M01 A3016 RMK A01 T00251008  RH  079%=      5-min Rain = 0
KBR1 141726Z 22012KT 03/M01 A3016 RMK A01 T00251007  RH  079%=      5-min Rain = 0
KBR1 141727Z 21014KT 03/M01 A3016 RMK A01 T00261007  RH  079%=      5-min Rain = 0
KBR1 141728Z 22012KT 03/M01 A3016 RMK A01 T00271006  RH  079%=      5-min Rain = 0
KBR1 141729Z 22014KT 03/M01 A3016 RMK A01 T00271006  RH  078%=      5-min Rain = 0
KBR1 141730Z 21015KT 03/M01 A3016 RMK A01 T00271007  RH  078%=      5-min Rain = 0
KBR1 141731Z 21014KT 03/M01 A3016 RMK A01 T00261009  RH  078%=      5-min Rain = 0
KBR1 141732Z 21014KT 03/M01 A3016 RMK A01 T00261008  RH  078%=      5-min Rain = 0
KBR1 141733Z 21014KT 03/M01 A3016 RMK A01 T00251009  RH  078%=      5-min Rain = 0
KBR1 141734Z 20014KT 03/M01 A3016 RMK A01 T00251009  RH  078%=      5-min Rain = 0
KBR1 141735Z 21013KT 03/M01 A3016 RMK A01 T00251008  RH  079%=      5-min Rain = 0
KBR1 141736Z 21015KT 03/M01 A3016 RMK A01 T00271007  RH  078%=      5-min Rain = 0
KBR1 141737Z 21014KT 03/M01 A3016 RMK A01 T00271008  RH  078%=      5-min Rain = 0
KBR1 141738Z 21015KT 03/M01 A3016 RMK A01 T00271008  RH  078%=      5-min Rain = 0
KBR1 141739Z 22013KT 03/M01 A3016 RMK A01 T00271009  RH  077%=      5-min Rain = 0
KBR1 141740Z 21016KT 03/M01 A3016 RMK A01 T00261009  RH  078%=      5-min Rain = 0
KBR1 141741Z 21017KT 03/M01 A3016 RMK A01 T00261009  RH  078%=      5-min Rain = 0
KBR1 141742Z 22017KT 03/M01 A3016 RMK A01 T00261009  RH  078%=      5-min Rain = 0
KBR1 141743Z 20015KT 03/M01 A3016 RMK A01 T00261009  RH  078%=      5-min Rain = 0
KBR1 141744Z 21018KT 03/M01 A3016 RMK A01 T00271007  RH  078%=      5-min Rain = 0
KBR1 141745Z 22014KT 03/M01 A3016 RMK A01 T00281007  RH  077%=      5-min Rain = 0
KBR1 141746Z 21013KT 03/M01 A3015 RMK A01 T00291008  RH  077%=      5-min Rain = 0
KBR1 141747Z 21014KT 03/M01 A3015 RMK A01 T00281008  RH  077%=      5-min Rain = 0
KBR1 141748Z 21015KT 03/M01 A3015 RMK A01 T00301007  RH  077%=      5-min Rain = 0
KBR1 141749Z 21016KT 03/M01 A3015 RMK A01 T00311007  RH  076%=      5-min Rain = 0
KBR1 141750Z 20013G19KT 03/M01 A3015 RMK A01 T00311007  RH  076%=      5-min Rain = 0
KBR1 141751Z 20017KT 03/M01 A3015 RMK A01 T00331005  RH  076%=      5-min Rain = 0
KBR1 141752Z 21018KT 03/M01 A3015 RMK A01 T00341006  RH  075%=      5-min Rain = 0
KBR1 141753Z 21016KT 03/M01 A3015 RMK A01 T00331007  RH  075%=      5-min Rain = 0
KBR1 141754Z 21014KT 03/M01 A3015 RMK A01 T00321008  RH  075%=      5-min Rain = 0
KBR1 141755Z 21015KT 03/M01 A3015 RMK A01 T00341005  RH  076%=      5-min Rain = 0
KBR1 141756Z 22015KT 04/M00 A3015 RMK A01 T00371004  RH  075%=      5-min Rain = 0
KBR1 141757Z 22015KT 04/M01 A3015 RMK A01 T00361007  RH  074%=      5-min Rain = 0
KBR1 141758Z 22017KT 03/M01 A3015 RMK A01 T00341009  RH  074%=      5-min Rain = 0
KBR1 141759Z 21017KT 03/M01 A3015 RMK A01 T00321009  RH  074%=      5-min Rain = 0
KBR1 141800Z 20017KT 03/M01 A3015 RMK A01 T00321008  RH  075%=      5-min Rain = 0
KBR1 141801Z 21015KT 03/M01 A3015 RMK A01 T00321008  RH  075%=      5-min Rain = 0
KBR1 141802Z 22017KT 03/M01 A3015 RMK A01 T00331007  RH  075%=      5-min Rain = 0
KBR1 141803Z 22018KT 03/M01 A3015 RMK A01 T00341007  RH  075%=      5-min Rain = 0
KBR1 141804Z 22016KT 03/M01 A3015 RMK A01 T00331008  RH  074%=      5-min Rain = 0
KBR1 141805Z 22017KT 03/M01 A3015 RMK A01 T00331008  RH  074%=      5-min Rain = 0
KBR1 141806Z 22016KT 03/M01 A3015 RMK A01 T00321009  RH  074%=      5-min Rain = 0
KBR1 141807Z 23014KT 03/M01 A3015 RMK A01 T00321008  RH  075%=      5-min Rain = 0
KBR1 141808Z 23013KT 03/M01 A3015 RMK A01 T00331006  RH  075%=      5-min Rain = 0
KBR1 141809Z 22015KT 04/M01 A3015 RMK A01 T00361005  RH  075%=      5-min Rain = 0
KBR1 141810Z 20017KT 04/M01 A3015 RMK A01 T00371005  RH  074%=      5-min Rain = 0
KBR1 141811Z 21017KT 04/M01 A3015 RMK A01 T00351007  RH  074%=      5-min Rain = 0
KBR1 141812Z 21018KT 03/M01 A3015 RMK A01 T00341008  RH  074%=      5-min Rain = 0
KBR1 141813Z 20017KT 03/M01 A3015 RMK A01 T00331008  RH  074%=      5-min Rain = 0
KBR1 141814Z 21016KT 03/M01 A3015 RMK A01 T00331008  RH  075%=      5-min Rain = 0
KBR1 141815Z 21017KT 04/M01 A3014 RMK A01 T00351006  RH  075%=      5-min Rain = 0
KBR1 141816Z 22017KT 04/M00 A3014 RMK A01 T00381004  RH  074%=      5-min Rain = 0
KBR1 141817Z 22019KT 04/M01 A3014 RMK A01 T00391006  RH  073%=      5-min Rain = 0
KBR1 141818Z 22017KT 04/M01 A3014 RMK A01 T00391006  RH  073%=      5-min Rain = 0
KBR1 141819Z 22014KT 04/M01 A3014 RMK A01 T00381006  RH  073%=      5-min Rain = 0
KBR1 141820Z 22015KT 04/M00 A3014 RMK A01 T00411002  RH  073%=      5-min Rain = 0
KBR1 141821Z 22017KT 04/M01 A3014 RMK A01 T00421005  RH  072%=      5-min Rain = 0
KBR1 141822Z 22016KT 04/M01 A3014 RMK A01 T00391008  RH  072%=      5-min Rain = 0
KBR1 141823Z 23015KT 04/M01 A3014 RMK A01 T00371007  RH  073%=      5-min Rain = 0
KBR1 141824Z 23014KT 04/M01 A3014 RMK A01 T00371006  RH  073%=      5-min Rain = 0
KBR1 141825Z 22016G21KT 04/M01 A3014 RMK A01 T00391005  RH  073%=      5-min Rain = 0
KBR1 141826Z 22017KT 04/M00 A3014 RMK A01 T00411004  RH  073%=      5-min Rain = 0
KBR1 141827Z 22013KT 04/M00 A3014 RMK A01 T00411004  RH  072%=      5-min Rain = 0
KBR1 141828Z 23014KT 04/M00 A3014 RMK A01 T00431003  RH  072%=      5-min Rain = 0
KBR1 141829Z 23013KT 04/M00 A3014 RMK A01 T00441003  RH  072%=      5-min Rain = 0
KBR1 141830Z 21015KT 05/M00 A3014 RMK A01 T00461001  RH  071%=      5-min Rain = 0
KBR1 141831Z 22013KT 05/M00 A3014 RMK A01 T00451004  RH  070%=      5-min Rain = 0
KBR1 141832Z 21015KT 04/M00 A3014 RMK A01 T00441004  RH  071%=      5-min Rain = 0
KBR1 141833Z 23016KT 04/M01 A3014 RMK A01 T00441005  RH  071%=      5-min Rain = 0
KBR1 141834Z 22017KT 04/M00 A3014 RMK A01 T00441004  RH  071%=      5-min Rain = 0
KBR1 141835Z 22014G19KT 04/M00 A3013 RMK A01 T00441004  RH  071%=      5-min Rain = 0
KBR1 141836Z 22017KT 05/M00 A3013 RMK A01 T00461002  RH  071%=      5-min Rain = 0
KBR1 141837Z 22019KT 05/M00 A3013 RMK A01 T00471002  RH  070%=      5-min Rain = 0
KBR1 141838Z 22017KT 05/M00 A3013 RMK A01 T00481003  RH  070%=      5-min Rain = 0
KBR1 141839Z 22016KT 05/M00 A3013 RMK A01 T00481004  RH  069%=      5-min Rain = 0
KBR1 141840Z 22017KT 05/M00 A3013 RMK A01 T00471003  RH  070%=      5-min Rain = 0
KBR1 141841Z 21016G21KT 05/M00 A3013 RMK A01 T00501001  RH  069%=      5-min Rain = 0
KBR1 141842Z 21014KT 05/M00 A3013 RMK A01 T00501003  RH  069%=      5-min Rain = 0
KBR1 141843Z 21015KT 05/M00 A3013 RMK A01 T00491004  RH  068%=      5-min Rain = 0
KBR1 141844Z 21016KT 05/M00 A3013 RMK A01 T00491002  RH  070%=      5-min Rain = 0
KBR1 141845Z 22016KT 05/00 A3013 RMK A01 T00520001  RH  069%=      5-min Rain = 0
KBR1 141846Z 22017KT 05/M01 A3013 RMK A01 T00501005  RH  068%=      5-min Rain = 0
KBR1 141847Z 22016KT 05/M01 A3013 RMK A01 T00481006  RH  068%=      5-min Rain = 0
KBR1 141848Z 22015G20KT 05/M00 A3013 RMK A01 T00501001  RH  070%=      5-min Rain = 0
KBR1 141849Z 22017KT 06/00 A3013 RMK A01 T00550002  RH  069%=      5-min Rain = 0
KBR1 141850Z 21016KT 06/00 A3013 RMK A01 T00580001  RH  067%=      5-min Rain = 0
KBR1 141851Z 21014KT 06/M00 A3012 RMK A01 T00581002  RH  065%=      5-min Rain = 0
KBR1 141852Z 21015KT 06/M00 A3012 RMK A01 T00571002  RH  066%=      5-min Rain = 0
KBR1 141853Z 22019KT 06/00 A3012 RMK A01 T005900-0  RH  066%=      5-min Rain = 0
KBR1 141854Z 21018KT 06/M00 A3012 RMK A01 T00591002  RH  065%=      5-min Rain = 0
KBR1 141855Z 21018KT 06/M00 A3012 RMK A01 T00591001  RH  065%=      5-min Rain = 0
KBR1 141856Z 23015KT 06/00 A3012 RMK A01 T00600001  RH  065%=      5-min Rain = 0
KBR1 141857Z 22013KT 06/M00 A3012 RMK A01 T00601001  RH  065%=      5-min Rain = 0
KBR1 141858Z 21017KT 06/M00 A3012 RMK A01 T00601001  RH  065%=      5-min Rain = 0
KBR1 141859Z 22015KT 06/M00 A3012 RMK A01 T00601001  RH  065%=      5-min Rain = 0
KBR1 141900Z 20017KT 06/00 A3012 RMK A01 T00610001  RH  065%=      5-min Rain = 0
KBR1 141901Z 20019KT 06/00 A3012 RMK A01 T00640001  RH  064%=      5-min Rain = 0
KBR1 141902Z 20018KT 06/M00 A3012 RMK A01 T00631002  RH  063%=      5-min Rain = 0
KBR1 141903Z 21018G23KT 06/M00 A3012 RMK A01 T00621002  RH  064%=      5-min Rain = 0
KBR1 141904Z 22015KT 06/00 A3012 RMK A01 T00640002  RH  065%=      5-min Rain = 0
KBR1 141905Z 21015KT 06/M00 A3012 RMK A01 T00631002  RH  063%=      5-min Rain = 0
KBR1 141906Z 22012G19KT 06/00 A3012 RMK A01 T006100-0  RH  065%=      5-min Rain = 0
KBR1 141907Z 23016KT 07/00 A3012 RMK A01 T00650001  RH  064%=      5-min Rain = 0
KBR1 141908Z 22014KT 06/M00 A3012 RMK A01 T00631002  RH  063%=      5-min Rain = 0
KBR1 141909Z 21016G21KT 07/00 A3011 RMK A01 T00650002  RH  064%=      5-min Rain = 0
KBR1 141910Z 21020KT 06/M00 A3011 RMK A01 T00631004  RH  062%=      5-min Rain = 0
KBR1 141911Z 21017KT 06/M01 A3011 RMK A01 T00571006  RH  064%=      5-min Rain = 0
KBR1 141912Z 22018KT 06/M00 A3011 RMK A01 T00601001  RH  065%=      5-min Rain = 0
KBR1 141913Z 21017KT 06/M00 A3011 RMK A01 T00591004  RH  064%=      5-min Rain = 0
KBR1 141914Z 21014KT 06/M00 A3011 RMK A01 T00571004  RH  065%=      5-min Rain = 0
KBR1 141915Z 22014G20KT 06/M00 A3011 RMK A01 T00561002  RH  066%=      5-min Rain = 0
KBR1 141916Z 21017KT 06/M00 A3011 RMK A01 T00581001  RH  066%=      5-min Rain = 0
KBR1 141917Z 23016KT 06/00 A3011 RMK A01 T00620001  RH  065%=      5-min Rain = 0
KBR1 141918Z 23013KT 07/00 A3011 RMK A01 T00650002  RH  064%=      5-min Rain = 0
KBR1 141919Z 20019KT 07/00 A301 RMK A01 T00660001  RH  063%=      5-min Rain = 0
KBR1 141920Z 20017KT 06/M00 A301 RMK A01 T00641002  RH  063%=      5-min Rain = 0
KBR1 141921Z 21016KT 06/M00 A301 RMK A01 T00641001  RH  063%=      5-min Rain = 0
KBR1 141922Z 21018KT 07/00 A301 RMK A01 T006500-0  RH  063%=      5-min Rain = 0
KBR1 141923Z 22019G24KT 07/00 A301 RMK A01 T00700002  RH  062%=      5-min Rain = 0
KBR1 141924Z 22017KT 07/00 A301 RMK A01 T00720000  RH  061%=      5-min Rain = 0
KBR1 141925Z 21016G21KT 07/M00 A301 RMK A01 T00701001  RH  061%=      5-min Rain = 0
KBR1 141926Z 20023KT 07/M00 A301 RMK A01 T00701002  RH  060%=      5-min Rain = 0
KBR1 141927Z 21018KT 07/M00 A301 RMK A01 T00691003  RH  060%=      5-min Rain = 0
KBR1 141928Z 21013KT 07/00 A301 RMK A01 T007000-0  RH  061%=      5-min Rain = 0
KBR1 141929Z 22014G21KT 07/00 A301 RMK A01 T00730002  RH  061%=      5-min Rain = 0
KBR1 141930Z 22018KT 08/00 A301 RMK A01 T00750001  RH  059%=      5-min Rain = 0
KBR1 141931Z 23018KT 07/M00 A301 RMK A01 T00731002  RH  059%=      5-min Rain = 0
KBR1 141932Z 23017KT 07/M01 A301 RMK A01 T00691005  RH  059%=      5-min Rain = 0
KBR1 141933Z 22018KT 07/M00 A301 RMK A01 T00661004  RH  061%=      5-min Rain = 0
KBR1 141934Z 21016KT 06/M00 A301 RMK A01 T00641004  RH  062%=      5-min Rain = 0
KBR1 141935Z 21015KT 07/M00 A3009 RMK A01 T00651002  RH  063%=      5-min Rain = 0
KBR1 141936Z 22017KT 07/00 A3009 RMK A01 T00690002  RH  063%=      5-min Rain = 0
KBR1 141937Z 22019KT 07/00 A3009 RMK A01 T007000-0  RH  061%=      5-min Rain = 0
KBR1 141938Z 23017KT 07/00 A3009 RMK A01 T00700000  RH  061%=      5-min Rain = 0
KBR1 141939Z 22016KT 07/00 A3009 RMK A01 T00730002  RH  061%=      5-min Rain = 0
KBR1 141940Z 21019KT 07/00 A3009 RMK A01 T00740001  RH  060%=      5-min Rain = 0
KBR1 141941Z 22018KT 07/00 A3009 RMK A01 T007400-0  RH  059%=      5-min Rain = 0
KBR1 141942Z 22016G21KT 07/M00 A3009 RMK A01 T00741001  RH  059%=      5-min Rain = 0
KBR1 141943Z 22019KT 07/00 A3009 RMK A01 T007400-0  RH  059%=      5-min Rain = 0
KBR1 141944Z 22014KT 08/00 A3009 RMK A01 T00770002  RH  059%=      5-min Rain = 0
KBR1 141945Z 22014KT 08/00 A3009 RMK A01 T00820003  RH  058%=      5-min Rain = 0
KBR1 141946Z 22017KT 08/00 A3008 RMK A01 T00810002  RH  058%=      5-min Rain = 0
KBR1 141947Z 22021KT 08/00 A3008 RMK A01 T00820001  RH  057%=      5-min Rain = 0
KBR1 141948Z 22018KT 08/00 A3008 RMK A01 T008100-0  RH  056%=      5-min Rain = 0
KBR1 141949Z 22016G23KT 08/00 A3008 RMK A01 T00820002  RH  057%=      5-min Rain = 0
KBR1 141950Z 22018KT 08/00 A3008 RMK A01 T00840002  RH  056%=      5-min Rain = 0
KBR1 141951Z 23017KT 08/00 A3008 RMK A01 T00820000  RH  056%=      5-min Rain = 0
KBR1 141952Z 22017KT 08/00 A3008 RMK A01 T00830002  RH  057%=      5-min Rain = 0
KBR1 141953Z 21020KT 08/00 A3007 RMK A01 T00830001  RH  056%=      5-min Rain = 0
KBR1 141954Z 21018KT 08/00 A3007 RMK A01 T00830001  RH  056%=      5-min Rain = 0
KBR1 141955Z 22016KT 08/00 A3007 RMK A01 T00830002  RH  057%=      5-min Rain = 0
KBR1 141956Z 21016KT 09/00 A3007 RMK A01 T00850003  RH  056%=      5-min Rain = 0
KBR1 141957Z 22013KT 08/00 A3007 RMK A01 T00840001  RH  056%=      5-min Rain = 0
KBR1 141958Z 20015KT 09/00 A3007 RMK A01 T00850004  RH  057%=      5-min Rain = 0
KBR1 141959Z 20019KT 09/00 A3006 RMK A01 T00880003  RH  055%=      5-min Rain = 0
KBR1 142000Z 20016KT 09/00 A3006 RMK A01 T00870002  RH  055%=      5-min Rain = 0
KBR1 142001Z 20015KT 09/00 A3006 RMK A01 T00880003  RH  055%=      5-min Rain = 0
KBR1 142002Z 22017KT 09/01 A3006 RMK A01 T00920006  RH  055%=      5-min Rain = 0
KBR1 142003Z 21017KT 09/00 A3006 RMK A01 T00910002  RH  054%=      5-min Rain = 0
KBR1 142004Z 20017KT 09/00 A3006 RMK A01 T008800-0  RH  054%=      5-min Rain = 0
KBR1 142005Z 22016KT 09/00 A3006 RMK A01 T00890001  RH  054%=      5-min Rain = 0
KBR1 142006Z 21017KT 09/00 A3006 RMK A01 T00920003  RH  054%=      5-min Rain = 0
KBR1 142007Z 21016KT 09/00 A3006 RMK A01 T00930001  RH  053%=      5-min Rain = 0
KBR1 142008Z 21018KT 09/00 A3006 RMK A01 T00920000  RH  053%=      5-min Rain = 0
KBR1 142009Z 22017KT 09/M00 A3006 RMK A01 T00871003  RH  053%=      5-min Rain = 0
KBR1 142010Z 22017KT 09/M00 A3005 RMK A01 T00851003  RH  054%=      5-min Rain = 0
KBR1 142011Z 23017KT 08/M00 A3006 RMK A01 T00821002  RH  055%=      5-min Rain = 0
KBR1 142012Z 22017KT 08/M00 A3005 RMK A01 T00801002  RH  056%=      5-min Rain = 0
KBR1 142013Z 22014KT 08/M00 A3005 RMK A01 T00791001  RH  057%=      5-min Rain = 0
KBR1 142014Z 22017KT 08/00 A3005 RMK A01 T00810000  RH  057%=      5-min Rain = 0
KBR1 142015Z 23016KT 08/M00 A3005 RMK A01 T00821001  RH  056%=      5-min Rain = 0
KBR1 142016Z 22015KT 08/M00 A3005 RMK A01 T00811002  RH  056%=      5-min Rain = 0
KBR1 142017Z 22016KT 08/M00 A3005 RMK A01 T00801001  RH  056%=      5-min Rain = 0
KBR1 142018Z 23015G20KT 08/M00 A3005 RMK A01 T00801002  RH  056%=      5-min Rain = 0
KBR1 142019Z 22018KT 08/M00 A3005 RMK A01 T00791003  RH  056%=      5-min Rain = 0
KBR1 142020Z 22017KT 08/M00 A3005 RMK A01 T00791003  RH  056%=      5-min Rain = 0
KBR1 142021Z 22014KT 08/M00 A3005 RMK A01 T00801002  RH  056%=      5-min Rain = 0
KBR1 142022Z 23016KT 08/M00 A3005 RMK A01 T00811001  RH  056%=      5-min Rain = 0
KBR1 142023Z 22015KT 08/M00 A3005 RMK A01 T00811001  RH  056%=      5-min Rain = 0
KBR1 142024Z 22016KT 08/M00 A3005 RMK A01 T00811002  RH  056%=      5-min Rain = 0
KBR1 142025Z 23015KT 08/00 A3005 RMK A01 T008100-0  RH  056%=      5-min Rain = 0
KBR1 142026Z 23017KT 08/00 A3004 RMK A01 T00840001  RH  056%=      5-min Rain = 0
KBR1 142027Z 23017KT 09/00 A3004 RMK A01 T00860000  RH  055%=      5-min Rain = 0
KBR1 142028Z 23014KT 09/00 A3004 RMK A01 T00900004  RH  055%=      5-min Rain = 0
KBR1 142029Z 23015KT 10/01 A3004 RMK A01 T00950005  RH  054%=      5-min Rain = 0
KBR1 142030Z 22016KT 10/00 A3004 RMK A01 T00970004  RH  052%=      5-min Rain = 0
KBR1 142031Z 21015KT 10/00 A3004 RMK A01 T00970002  RH  052%=      5-min Rain = 0
KBR1 142032Z 21014KT 10/00 A3004 RMK A01 T00950001  RH  052%=      5-min Rain = 0
KBR1 142033Z 21013KT 10/00 A3004 RMK A01 T00950002  RH  052%=      5-min Rain = 0
KBR1 142034Z 23016G21KT 10/00 A3004 RMK A01 T00970002  RH  052%=      5-min Rain = 0
KBR1 142035Z 23018KT 10/00 A3004 RMK A01 T00980001  RH  051%=      5-min Rain = 0
KBR1 142036Z 23016KT 10/00 A3004 RMK A01 T00990001  RH  050%=      5-min Rain = 0
KBR1 142037Z 22014KT 10/00 A3004 RMK A01 T00990001  RH  050%=      5-min Rain = 0
KBR1 142038Z 23015KT 10/00 A3004 RMK A01 T00990000  RH  050%=      5-min Rain = 0
KBR1 142039Z 22016KT 10/M00 A3004 RMK A01 T00971001  RH  050%=      5-min Rain = 0
KBR1 142040Z 21018KT 10/M00 A3003 RMK A01 T00971003  RH  050%=      5-min Rain = 0
KBR1 142041Z 22018KT 09/M00 A3003 RMK A01 T00941004  RH  050%=      5-min Rain = 0
KBR1 142042Z 22018KT 09/M00 A3003 RMK A01 T00921003  RH  051%=      5-min Rain = 0
KBR1 142043Z 22019KT 09/M00 A3003 RMK A01 T00911003  RH  052%=      5-min Rain = 0
KBR1 142044Z 22018KT 09/M00 A3003 RMK A01 T00911003  RH  052%=      5-min Rain = 0
KBR1 142045Z 22018KT 09/M00 A3003 RMK A01 T00911002  RH  052%=      5-min Rain = 0
KBR1 142046Z 22017KT 09/M00 A3003 RMK A01 T00901002  RH  052%=      5-min Rain = 0
KBR1 142047Z 21015KT 09/M00 A3003 RMK A01 T00911001  RH  052%=      5-min Rain = 0
KBR1 142048Z 22017KT 09/00 A3003 RMK A01 T00920001  RH  053%=      5-min Rain = 0
KBR1 142049Z 21018KT 09/00 A3003 RMK A01 T00930001  RH  053%=      5-min Rain = 0
KBR1 142050Z 22017KT 09/00 A3003 RMK A01 T00920002  RH  053%=      5-min Rain = 0
KBR1 142051Z 21018KT 09/00 A3003 RMK A01 T00920003  RH  054%=      5-min Rain = 0
KBR1 142052Z 20017KT 09/00 A3003 RMK A01 T00930004  RH  054%=      5-min Rain = 0
KBR1 142053Z 20013KT 09/00 A3003 RMK A01 T00920004  RH  054%=      5-min Rain = 0
KBR1 142054Z 21015KT 09/01 A3003 RMK A01 T00940007  RH  054%=      5-min Rain = 0
KBR1 142055Z 20016KT 10/01 A3003 RMK A01 T00960006  RH  053%=      5-min Rain = 0
KBR1 142056Z 20017KT 10/01 A3003 RMK A01 T00970006  RH  053%=      5-min Rain = 0
KBR1 142057Z 22015KT 10/01 A3002 RMK A01 T00960005  RH  053%=      5-min Rain = 0
KBR1 142058Z 22014G21KT 10/01 A3002 RMK A01 T00980006  RH  053%=      5-min Rain = 0
KBR1 142059Z 22016G21KT 10/01 A3002 RMK A01 T01010007  RH  052%=      5-min Rain = 0
KBR1 142100Z 22014KT 10/01 A3003 RMK A01 T01020007  RH  052%=      5-min Rain = 0
KBR1 142101Z 21012KT 10/01 A3002 RMK A01 T01030008  RH  052%=      5-min Rain = 0
KBR1 142102Z 20013KT 11/01 A3002 RMK A01 T01070010  RH  051%=      5-min Rain = 0
KBR1 142103Z 20013KT 11/01 A3002 RMK A01 T01080010  RH  051%=      5-min Rain = 0
KBR1 142104Z 21015KT 11/01 A3002 RMK A01 T01090008  RH  050%=      5-min Rain = 0
KBR1 142105Z 22016KT 11/01 A3002 RMK A01 T01100005  RH  049%=      5-min Rain = 0
KBR1 142106Z 21014KT 11/00 A3002 RMK A01 T01080004  RH  049%=      5-min Rain = 0
KBR1 142107Z 20016KT 11/01 A3002 RMK A01 T01080006  RH  049%=      5-min Rain = 0
KBR1 142108Z 20014KT 11/01 A3002 RMK A01 T01080006  RH  049%=      5-min Rain = 0
KBR1 142109Z 21014KT 11/01 A3002 RMK A01 T01100008  RH  049%=      5-min Rain = 0
KBR1 142110Z 22015KT 11/01 A3002 RMK A01 T01140007  RH  048%=      5-min Rain = 0
KBR1 142111Z 20014KT 11/00 A3002 RMK A01 T01130004  RH  047%=      5-min Rain = 0
KBR1 142112Z 21018KT 11/01 A3002 RMK A01 T01120005  RH  048%=      5-min Rain = 0
KBR1 142113Z 20018KT 11/00 A3001 RMK A01 T01100003  RH  047%=      5-min Rain = 0
KBR1 142114Z 21016KT 11/00 A3001 RMK A01 T01090003  RH  048%=      5-min Rain = 0
KBR1 142115Z 22017G22KT 11/00 A3001 RMK A01 T01130004  RH  047%=      5-min Rain = 0
KBR1 142116Z 21017KT 11/00 A3001 RMK A01 T01140002  RH  046%=      5-min Rain = 0
KBR1 142117Z 21016KT 11/00 A3001 RMK A01 T01140002  RH  046%=      5-min Rain = 0
KBR1 142118Z 22017KT 11/M00 A3001 RMK A01 T01111001  RH  046%=      5-min Rain = 0
KBR1 142119Z 21020KT 11/M00 A3001 RMK A01 T01121001  RH  046%=      5-min Rain = 0
KBR1 142120Z 22017KT 11/M00 A3001 RMK A01 T01131002  RH  045%=      5-min Rain = 0
KBR1 142121Z 21014KT 12/00 A3001 RMK A01 T01150001  RH  045%=      5-min Rain = 0
KBR1 142122Z 21018KT 12/00 A3001 RMK A01 T01190003  RH  045%=      5-min Rain = 0
KBR1 142123Z 20017KT 12/00 A3001 RMK A01 T011600-0  RH  045%=      5-min Rain = 0
KBR1 142124Z 20018KT 12/00 A3001 RMK A01 T011500-0  RH  045%=      5-min Rain = 0
KBR1 142125Z 20017KT 11/00 A3001 RMK A01 T011300-0  RH  046%=      5-min Rain = 0
KBR1 142126Z 22017KT 11/00 A3001 RMK A01 T01130000  RH  046%=      5-min Rain = 0
KBR1 142127Z 21015KT 11/00 A3001 RMK A01 T01140002  RH  046%=      5-min Rain = 0
KBR1 142128Z 20018KT 12/00 A3001 RMK A01 T01180002  RH  045%=      5-min Rain = 0
KBR1 142129Z 21020KT 12/M00 A3001 RMK A01 T01171001  RH  044%=      5-min Rain = 0
KBR1 142130Z 20017KT 11/M00 A3001 RMK A01 T01141001  RH  045%=      5-min Rain = 0
KBR1 142131Z 21018KT 11/M00 A3001 RMK A01 T01141001  RH  045%=      5-min Rain = 0
KBR1 142132Z 21018KT 11/M00 A3001 RMK A01 T01141003  RH  044%=      5-min Rain = 0
KBR1 142133Z 22018KT 12/M00 A3001 RMK A01 T01151004  RH  044%=      5-min Rain = 0
KBR1 142134Z 22018KT 12/M00 A3001 RMK A01 T01171004  RH  043%=      5-min Rain = 0
KBR1 142135Z 22017KT 12/M00 A3001 RMK A01 T01171004  RH  043%=      5-min Rain = 0
KBR1 142136Z 22015KT 12/M00 A3001 RMK A01 T01171003  RH  043%=      5-min Rain = 0
KBR1 142137Z 22017KT 12/M00 A30 RMK A01 T01181003  RH  043%=      5-min Rain = 0
KBR1 142138Z 22013KT 12/M00 A30 RMK A01 T01181002  RH  044%=      5-min Rain = 0
KBR1 142139Z 20019G24KT 12/M00 A30 RMK A01 T01211001  RH  043%=      5-min Rain = 0
KBR1 142140Z 22019KT 12/M00 A30 RMK A01 T01221004  RH  042%=      5-min Rain = 0
KBR1 142141Z 21018KT 12/M01 A30 RMK A01 T01201006  RH  042%=      5-min Rain = 0
KBR1 142142Z 21017KT 12/M01 A30 RMK A01 T01181006  RH  042%=      5-min Rain = 0
KBR1 142143Z 21015KT 12/M01 A30 RMK A01 T01171005  RH  043%=      5-min Rain = 0
KBR1 142144Z 21014KT 12/M00 A30 RMK A01 T01201002  RH  043%=      5-min Rain = 0
KBR1 142145Z 21014KT 12/M00 A30 RMK A01 T01221001  RH  043%=      5-min Rain = 0
KBR1 142146Z 20015KT 12/M00 A30 RMK A01 T01231004  RH  042%=      5-min Rain = 0
KBR1 142147Z 21016KT 12/M00 A2999 RMK A01 T01231004  RH  042%=      5-min Rain = 0
KBR1 142148Z 21014KT 12/M00 A2999 RMK A01 T01231003  RH  042%=      5-min Rain = 0
KBR1 142149Z 21016KT 13/M00 A2999 RMK A01 T01261002  RH  041%=      5-min Rain = 0
KBR1 142150Z 20014KT 13/M00 A2999 RMK A01 T01261004  RH  041%=      5-min Rain = 0
KBR1 142151Z 21018G23KT 13/M01 A2999 RMK A01 T01271007  RH  040%=      5-min Rain = 0
KBR1 142152Z 22021KT 13/M01 A2999 RMK A01 T01291011  RH  038%=      5-min Rain = 0
KBR1 142153Z 22017KT 13/M01 A2999 RMK A01 T01291014  RH  037%=      5-min Rain = 0
KBR1 142154Z 21020KT 13/M01 A2999 RMK A01 T01301014  RH  037%=      5-min Rain = 0
KBR1 142155Z 21021KT 13/M02 A2999 RMK A01 T01311016  RH  036%=      5-min Rain = 0
KBR1 142156Z 21020KT 13/M02 A2999 RMK A01 T01291016  RH  036%=      5-min Rain = 0
KBR1 142157Z 21016KT 13/M01 A2999 RMK A01 T01301013  RH  037%=      5-min Rain = 0
KBR1 142158Z 20016G22KT 13/M01 A2999 RMK A01 T01331010  RH  037%=      5-min Rain = 0
KBR1 142159Z 20019G24KT 13/M02 A2999 RMK A01 T01331017  RH  035%=      5-min Rain = 0
KBR1 142200Z 20022KT 13/M02 A2998 RMK A01 T01321022  RH  034%=      5-min Rain = 0
KBR1 142201Z 20023KT 13/M02 A2998 RMK A01 T01311022  RH  034%=      5-min Rain = 0
KBR1 142202Z 22022G28KT 13/M02 A2998 RMK A01 T01311021  RH  035%=      5-min Rain = 0
KBR1 142203Z 21021KT 13/M02 A2998 RMK A01 T01321022  RH  034%=      5-min Rain = 0
KBR1 142204Z 22022G27KT 13/M02 A2998 RMK A01 T01311022  RH  034%=      5-min Rain = 0
KBR1 142205Z 21023KT 13/M03 A2998 RMK A01 T01301025  RH  034%=      5-min Rain = 0
KBR1 142206Z 21022KT 13/M03 A2998 RMK A01 T01301026  RH  034%=      5-min Rain = 0
KBR1 142207Z 21023KT 13/M03 A2998 RMK A01 T01281027  RH  034%=      5-min Rain = 0
KBR1 142208Z 21024KT 13/M03 A2998 RMK A01 T01271028  RH  034%=      5-min Rain = 0
KBR1 142209Z 21021KT 13/M03 A2998 RMK A01 T01271028  RH  034%=      5-min Rain = 0
KBR1 142210Z 22023KT 13/M03 A2998 RMK A01 T01281026  RH  034%=      5-min Rain = 0
KBR1 142211Z 21021KT 13/M02 A2998 RMK A01 T01281024  RH  035%=      5-min Rain = 0
KBR1 142212Z 21019KT 13/M02 A2998 RMK A01 T01291022  RH  035%=      5-min Rain = 0
KBR1 142213Z 22021G26KT 13/M02 A2998 RMK A01 T01291020  RH  035%=      5-min Rain = 0
KBR1 142214Z 21020G25KT 13/M02 A2998 RMK A01 T01301021  RH  035%=      5-min Rain = 0
KBR1 142215Z 21021KT 13/M02 A2998 RMK A01 T01311024  RH  034%=      5-min Rain = 0
KBR1 142216Z 21019KT 13/M03 A2998 RMK A01 T01301025  RH  034%=      5-min Rain = 0
KBR1 142217Z 21022KT 13/M03 A2998 RMK A01 T01301027  RH  034%=      5-min Rain = 0
KBR1 142218Z 21023KT 13/M03 A2998 RMK A01 T01291030  RH  033%=      5-min Rain = 0
KBR1 142219Z 21021KT 13/M03 A2998 RMK A01 T01281028  RH  034%=      5-min Rain = 0
KBR1 142220Z 21021KT 13/M03 A2998 RMK A01 T01281028  RH  034%=      5-min Rain = 0
KBR1 142221Z 20020KT 13/M03 A2998 RMK A01 T01271025  RH  035%=      5-min Rain = 0
KBR1 142222Z 20018KT 13/M03 A2998 RMK A01 T01261025  RH  035%=      5-min Rain = 0
KBR1 142223Z 20019KT 13/M02 A2998 RMK A01 T01301022  RH  035%=      5-min Rain = 0
KBR1 142224Z 20021KT 13/M03 A2998 RMK A01 T01301025  RH  034%=      5-min Rain = 0
KBR1 142225Z 21021KT 13/M03 A2998 RMK A01 T01301026  RH  034%=      5-min Rain = 0
KBR1 142226Z 20024KT 13/M03 A2998 RMK A01 T01301027  RH  034%=      5-min Rain = 0
KBR1 142227Z 20021KT 13/M03 A2998 RMK A01 T01301025  RH  034%=      5-min Rain = 0
KBR1 142228Z 20019KT 13/M02 A2998 RMK A01 T01301024  RH  034%=      5-min Rain = 0
KBR1 142229Z 20022KT 13/M03 A2998 RMK A01 T01311025  RH  034%=      5-min Rain = 0
KBR1 142230Z 20021KT 13/M03 A2998 RMK A01 T01301028  RH  033%=      5-min Rain = 0
KBR1 142231Z 20017KT 13/M03 A2998 RMK A01 T01311028  RH  033%=      5-min Rain = 0
KBR1 142232Z 20019G24KT 13/M03 A2997 RMK A01 T01331026  RH  033%=      5-min Rain = 0
KBR1 142233Z 20020G26KT 13/M03 A2997 RMK A01 T01341028  RH  032%=      5-min Rain = 0
KBR1 142234Z 20023KT 13/M03 A2997 RMK A01 T01331031  RH  032%=      5-min Rain = 0
KBR1 142235Z 20021KT 13/M03 A2997 RMK A01 T01311031  RH  032%=      5-min Rain = 0
KBR1 142236Z 21021KT 13/M03 A2997 RMK A01 T01311030  RH  033%=      5-min Rain = 0
KBR1 142237Z 20024KT 13/M03 A2997 RMK A01 T01311030  RH  032%=      5-min Rain = 0
KBR1 142238Z 21023KT 13/M03 A2997 RMK A01 T01301032  RH  032%=      5-min Rain = 0
KBR1 142239Z 21022KT 13/M03 A2997 RMK A01 T01301031  RH  033%=      5-min Rain = 0
KBR1 142240Z 21020KT 13/M03 A2997 RMK A01 T01301029  RH  033%=      5-min Rain = 0
KBR1 142241Z 21020G26KT 13/M03 A2997 RMK A01 T01311028  RH  033%=      5-min Rain = 0
KBR1 142242Z 20021KT 13/M03 A2997 RMK A01 T01311028  RH  033%=      5-min Rain = 0
KBR1 142243Z 20022KT 13/M03 A2997 RMK A01 T01311027  RH  033%=      5-min Rain = 0
KBR1 142244Z 21020KT 13/M03 A2996 RMK A01 T01311026  RH  033%=      5-min Rain = 0
KBR1 142245Z 20016G21KT 13/M02 A2997 RMK A01 T01311024  RH  034%=      5-min Rain = 0
KBR1 142246Z 20016KT 13/M02 A2996 RMK A01 T01321023  RH  034%=      5-min Rain = 0
KBR1 142247Z 21019KT 13/M02 A2996 RMK A01 T01341021  RH  034%=      5-min Rain = 0
KBR1 142248Z 20020G25KT 14/M02 A2996 RMK A01 T01351021  RH  034%=      5-min Rain = 0
KBR1 142249Z 20023KT 13/M02 A2996 RMK A01 T01331024  RH  034%=      5-min Rain = 0
KBR1 142250Z 21022KT 13/M02 A2996 RMK A01 T01311024  RH  034%=      5-min Rain = 0
KBR1 142251Z 21019G24KT 13/M02 A2996 RMK A01 T01311023  RH  034%=      5-min Rain = 0
KBR1 142252Z 21022KT 13/M02 A2996 RMK A01 T01321023  RH  034%=      5-min Rain = 0
KBR1 142253Z 21021KT 13/M02 A2996 RMK A01 T01321023  RH  034%=      5-min Rain = 0
KBR1 142254Z 20020G26KT 13/M02 A2996 RMK A01 T01331023  RH  034%=      5-min Rain = 0
KBR1 142255Z 20023KT 13/M02 A2996 RMK A01 T01341024  RH  033%=      5-min Rain = 0
KBR1 142256Z 20022KT 13/M03 A2996 RMK A01 T01331025  RH  033%=      5-min Rain = 0
KBR1 142257Z 21023G28KT 13/M03 A2995 RMK A01 T01321025  RH  034%=      5-min Rain = 0
KBR1 142258Z 20023G28KT 13/M03 A2995 RMK A01 T01321025  RH  034%=      5-min Rain = 0
KBR1 142259Z 21023KT 13/M03 A2996 RMK A01 T01311026  RH  034%=      5-min Rain = 0
KBR1 142300Z 20024KT 13/M03 A2995 RMK A01 T01301026  RH  034%=      5-min Rain = 0
KBR1 142301Z 20022KT 13/M03 A2996 RMK A01 T01301025  RH  034%=      5-min Rain = 0
KBR1 142302Z 20022KT 13/M03 A2996 RMK A01 T01301026  RH  034%=      5-min Rain = 0
KBR1 142303Z 20021G26KT 13/M03 A2996 RMK A01 T01301031  RH  033%=      5-min Rain = 0
KBR1 142304Z 20023KT 13/M03 A2996 RMK A01 T01311032  RH  032%=      5-min Rain = 0
KBR1 142305Z 20021KT 13/M03 A2996 RMK A01 T01311034  RH  031%=      5-min Rain = 0
KBR1 142306Z 21021KT 13/M04 A2996 RMK A01 T01311035  RH  031%=      5-min Rain = 0
KBR1 142307Z 21022KT 13/M04 A2996 RMK A01 T01301035  RH  031%=      5-min Rain = 0
KBR1 142308Z 21020KT 13/M04 A2996 RMK A01 T01301036  RH  031%=      5-min Rain = 0
KBR1 142309Z 21021KT 13/M04 A2996 RMK A01 T01301035  RH  032%=      5-min Rain = 0
KBR1 142310Z 21021KT 13/M04 A2996 RMK A01 T01301036  RH  031%=      5-min Rain = 0
KBR1 142311Z 21022G27KT 13/M04 A2996 RMK A01 T01301037  RH  031%=      5-min Rain = 0
KBR1 142312Z 21022KT 13/M04 A2996 RMK A01 T01301039  RH  031%=      5-min Rain = 0
KBR1 142313Z 21024KT 13/M04 A2996 RMK A01 T01291040  RH  031%=      5-min Rain = 0
KBR1 142314Z 21022KT 13/M04 A2996 RMK A01 T01281040  RH  031%=      5-min Rain = 0
KBR1 142315Z 21021KT 13/M04 A2996 RMK A01 T01281039  RH  031%=      5-min Rain = 0
KBR1 142316Z 20021KT 13/M04 A2996 RMK A01 T01281038  RH  031%=      5-min Rain = 0
KBR1 142317Z 20018KT 13/M04 A2996 RMK A01 T01281036  RH  032%=      5-min Rain = 0
KBR1 142318Z 20021KT 13/M03 A2996 RMK A01 T01281034  RH  032%=      5-min Rain = 0
KBR1 142319Z 20019KT 13/M03 A2996 RMK A01 T01281032  RH  033%=      5-min Rain = 0
KBR1 142320Z 20020KT 13/M03 A2996 RMK A01 T01281030  RH  033%=      5-min Rain = 0
KBR1 142321Z 21017KT 13/M03 A2996 RMK A01 T01281031  RH  033%=      5-min Rain = 0
KBR1 142322Z 21016KT 13/M03 A2996 RMK A01 T01281031  RH  033%=      5-min Rain = 0
KBR1 142323Z 21019KT 13/M03 A2996 RMK A01 T01291030  RH  033%=      5-min Rain = 0
KBR1 142324Z 21017KT 13/M03 A2996 RMK A01 T01291029  RH  033%=      5-min Rain = 0
KBR1 142325Z 21020KT 13/M03 A2996 RMK A01 T01291026  RH  034%=      5-min Rain = 0
KBR1 142326Z 20020KT 13/M02 A2996 RMK A01 T01271019  RH  036%=      5-min Rain = 0
KBR1 142327Z 20020KT 13/M02 A2996 RMK A01 T01261016  RH  037%=      5-min Rain = 0
KBR1 142328Z 19020KT 13/M02 A2996 RMK A01 T01251016  RH  038%=      5-min Rain = 0
KBR1 142329Z 19021KT 12/M02 A2996 RMK A01 T01241016  RH  038%=      5-min Rain = 0
KBR1 142330Z 20021KT 12/M02 A2996 RMK A01 T01231017  RH  038%=      5-min Rain = 0
KBR1 142331Z 19020KT 12/M02 A2996 RMK A01 T01211018  RH  038%=      5-min Rain = 0
KBR1 142332Z 19020KT 12/M02 A2996 RMK A01 T01211017  RH  038%=      5-min Rain = 0
KBR1 142333Z 19019KT 12/M02 A2996 RMK A01 T01211017  RH  038%=      5-min Rain = 0
KBR1 142334Z 19018KT 12/M02 A2996 RMK A01 T01221016  RH  038%=      5-min Rain = 0
KBR1 142335Z 19016KT 12/M02 A2996 RMK A01 T01211016  RH  038%=      5-min Rain = 0
KBR1 142336Z 20017G23KT 12/M02 A2996 RMK A01 T01221016  RH  038%=      5-min Rain = 0
KBR1 142337Z 19019KT 12/M02 A2996 RMK A01 T01221016  RH  038%=      5-min Rain = 0
KBR1 142338Z 20018KT 12/M02 A2996 RMK A01 T01221016  RH  038%=      5-min Rain = 0
KBR1 142339Z 20020KT 12/M02 A2996 RMK A01 T01211017  RH  038%=      5-min Rain = 0
KBR1 142340Z 20018KT 12/M02 A2996 RMK A01 T01211017  RH  038%=      5-min Rain = 0
KBR1 142341Z 20017G22KT 12/M02 A2996 RMK A01 T01211016  RH  038%=      5-min Rain = 0
KBR1 142342Z 20018G23KT 12/M02 A2996 RMK A01 T01211017  RH  038%=      5-min Rain = 0
KBR1 142343Z 20020KT 12/M02 A2996 RMK A01 T01201018  RH  038%=      5-min Rain = 0
KBR1 142344Z 20019KT 12/M02 A2996 RMK A01 T01201018  RH  038%=      5-min Rain = 0
KBR1 142345Z 19018KT 12/M02 A2996 RMK A01 T01191018  RH  038%=      5-min Rain = 0
KBR1 142346Z 20017KT 12/M02 A2996 RMK A01 T01191018  RH  039%=      5-min Rain = 0
KBR1 142347Z 20018KT 12/M02 A2996 RMK A01 T01191017  RH  039%=      5-min Rain = 0
KBR1 142348Z 20020KT 12/M02 A2996 RMK A01 T01191017  RH  039%=      5-min Rain = 0
KBR1 142349Z 20016KT 12/M02 A2996 RMK A01 T01181018  RH  039%=      5-min Rain = 0
KBR1 142350Z 20019KT 12/M02 A2996 RMK A01 T01181017  RH  039%=      5-min Rain = 0
KBR1 142351Z 20023KT 12/M02 A2996 RMK A01 T01181018  RH  039%=      5-min Rain = 0
KBR1 142352Z 20022KT 12/M02 A2996 RMK A01 T01181018  RH  039%=      5-min Rain = 0
KBR1 142353Z 20022KT 12/M02 A2996 RMK A01 T01171017  RH  039%=      5-min Rain = 0
KBR1 142354Z 20018KT 12/M02 A2996 RMK A01 T01171017  RH  039%=      5-min Rain = 0
KBR1 142355Z 20019KT 12/M02 A2996 RMK A01 T01161016  RH  040%=      5-min Rain = 0
KBR1 142356Z 20018KT 12/M02 A2996 RMK A01 T01161016  RH  040%=      5-min Rain = 0
KBR1 142357Z 20018KT 12/M02 A2996 RMK A01 T01161016  RH  040%=      5-min Rain = 0
KBR1 142358Z 20018KT 12/M02 A2996 RMK A01 T01151016  RH  040%=      5-min Rain = 0
KBR1 142359Z 21016KT 12/M02 A2996 RMK A01 T01161016  RH  040%=      5-min Rain = 0
KBR1 150000Z 20017KT 12/M02 A2996 RMK A01 T01151015  RH  040%=      5-min Rain = 0
KBR1 150001Z 21017KT 11/M02 A2996 RMK A01 T01141015  RH  041%=      5-min Rain = 0
KBR1 150002Z 21016KT 11/M02 A2997 RMK A01 T01121015  RH  041%=      5-min Rain = 0
KBR1 150003Z 20015KT 11/M02 A2997 RMK A01 T01111015  RH  042%=      5-min Rain = 0
KBR1 150004Z 20014KT 11/M02 A2997 RMK A01 T01091015  RH  042%=      5-min Rain = 0
KBR1 150005Z 20013KT 11/M02 A2997 RMK A01 T01081015  RH  043%=      5-min Rain = 0
KBR1 150006Z 20012KT 11/M01 A2997 RMK A01 T01081014  RH  043%=      5-min Rain = 0
KBR1 150007Z 19012KT 11/M01 A2997 RMK A01 T01071014  RH  043%=      5-min Rain = 0
KBR1 150008Z 19012KT 11/M01 A2997 RMK A01 T01061014  RH  043%=      5-min Rain = 0
KBR1 150009Z 19013KT 11/M01 A2996 RMK A01 T01051013  RH  044%=      5-min Rain = 0
KBR1 150010Z 20013KT 11/M01 A2996 RMK A01 T01061012  RH  044%=      5-min Rain = 0
KBR1 150011Z 19012KT 11/M01 A2997 RMK A01 T01061012  RH  044%=      5-min Rain = 0
KBR1 150012Z 19012KT 10/M01 A2996 RMK A01 T01041012  RH  044%=      5-min Rain = 0
KBR1 150013Z 20011KT 10/M01 A2996 RMK A01 T01041012  RH  044%=      5-min Rain = 0
KBR1 150014Z 20012G17KT 10/M01 A2996 RMK A01 T01041012  RH  044%=      5-min Rain = 0
KBR1 150015Z 20013KT 10/M01 A2996 RMK A01 T01041011  RH  045%=      5-min Rain = 0
KBR1 150016Z 20014KT 10/M01 A2996 RMK A01 T01041011  RH  045%=      5-min Rain = 0
KBR1 150017Z 20013KT 10/M01 A2996 RMK A01 T01041011  RH  045%=      5-min Rain = 0
KBR1 150018Z 20013KT 10/M01 A2996 RMK A01 T01041011  RH  045%=      5-min Rain = 0
KBR1 150019Z 19014KT 10/M01 A2996 RMK A01 T01031011  RH  045%=      5-min Rain = 0
KBR1 150020Z 20014KT 10/M01 A2996 RMK A01 T01021011  RH  045%=      5-min Rain = 0
KBR1 150021Z 20015KT 10/M01 A2996 RMK A01 T01021011  RH  045%=      5-min Rain = 0
KBR1 150022Z 20015KT 10/M01 A2996 RMK A01 T01021010  RH  046%=      5-min Rain = 0
KBR1 150023Z 20015KT 10/M01 A2996 RMK A01 T01011010  RH  046%=      5-min Rain = 0
KBR1 150024Z 20016KT 10/M01 A2996 RMK A01 T01001010  RH  046%=      5-min Rain = 0
KBR1 150025Z 20017KT 10/M01 A2996 RMK A01 T01011010  RH  046%=      5-min Rain = 0
KBR1 150026Z 20015KT 10/M01 A2996 RMK A01 T01001010  RH  046%=      5-min Rain = 0
KBR1 150027Z 20017KT 10/M01 A2996 RMK A01 T01001009  RH  047%=      5-min Rain = 0
KBR1 150028Z 20016G21KT 10/M01 A2996 RMK A01 T01001009  RH  047%=      5-min Rain = 0
KBR1 150029Z 20018KT 10/M01 A2996 RMK A01 T00991009  RH  047%=      5-min Rain = 0
KBR1 150030Z 20016KT 10/M01 A2996 RMK A01 T00991008  RH  047%=      5-min Rain = 0
KBR1 150031Z 20017KT 10/M01 A2996 RMK A01 T00981008  RH  047%=      5-min Rain = 0
KBR1 150032Z 20018KT 10/M01 A2996 RMK A01 T00981008  RH  048%=      5-min Rain = 0
KBR1 150033Z 20016KT 10/M01 A2996 RMK A01 T00981008  RH  048%=      5-min Rain = 0
KBR1 150034Z 20018KT 10/M01 A2996 RMK A01 T00981008  RH  048%=      5-min Rain = 0
KBR1 150035Z 20018KT 10/M01 A2996 RMK A01 T00971008  RH  048%=      5-min Rain = 0
KBR1 150036Z 20017KT 10/M01 A2996 RMK A01 T00961007  RH  048%=      5-min Rain = 0
KBR1 150037Z 20017KT 10/M01 A2996 RMK A01 T00961007  RH  049%=      5-min Rain = 0
KBR1 150038Z 20017KT 10/M01 A2996 RMK A01 T00951007  RH  049%=      5-min Rain = 0
KBR1 150039Z 20017KT 09/M01 A2996 RMK A01 T00941007  RH  049%=      5-min Rain = 0
KBR1 150040Z 20016KT 09/M01 A2996 RMK A01 T00941007  RH  049%=      5-min Rain = 0
KBR1 150041Z 20016KT 09/M01 A2996 RMK A01 T00931006  RH  050%=      5-min Rain = 0
KBR1 150042Z 20016KT 09/M01 A2996 RMK A01 T00921007  RH  050%=      5-min Rain = 0
KBR1 150043Z 20015KT 09/M01 A2996 RMK A01 T00921007  RH  050%=      5-min Rain = 0
KBR1 150044Z 20016KT 09/M01 A2996 RMK A01 T00911006  RH  050%=      5-min Rain = 0
KBR1 150045Z 20015KT 09/M01 A2996 RMK A01 T00911006  RH  051%=      5-min Rain = 0
KBR1 150046Z 20015KT 09/M01 A2996 RMK A01 T00901006  RH  051%=      5-min Rain = 0
KBR1 150047Z 21014KT 09/M01 A2997 RMK A01 T00901006  RH  051%=      5-min Rain = 0
KBR1 150048Z 20015KT 09/M01 A2997 RMK A01 T00891006  RH  051%=      5-min Rain = 0
KBR1 150049Z 20014KT 09/M01 A2997 RMK A01 T00881006  RH  052%=      5-min Rain = 0
KBR1 150050Z 21014KT 09/M01 A2997 RMK A01 T00881006  RH  052%=      5-min Rain = 0
KBR1 150051Z 20015KT 09/M01 A2997 RMK A01 T00871006  RH  052%=      5-min Rain = 0
KBR1 150052Z 20013KT 09/M01 A2997 RMK A01 T00871005  RH  053%=      5-min Rain = 0
KBR1 150053Z 20014KT 09/M01 A2997 RMK A01 T00861005  RH  053%=      5-min Rain = 0
KBR1 150054Z 20014KT 09/M01 A2997 RMK A01 T00861005  RH  053%=      5-min Rain = 0
KBR1 150055Z 20016KT 09/M00 A2997 RMK A01 T00851004  RH  053%=      5-min Rain = 0
KBR1 150056Z 20015KT 09/M00 A2997 RMK A01 T00851004  RH  054%=      5-min Rain = 0
KBR1 150057Z 20017KT 09/M00 A2997 RMK A01 T00851003  RH  054%=      5-min Rain = 0
KBR1 150058Z 20015KT 09/M00 A2997 RMK A01 T00861002  RH  054%=      5-min Rain = 0
KBR1 150059Z 20015KT 09/M00 A2997 RMK A01 T00851002  RH  054%=      5-min Rain = 0
KBR1 150100Z 20015KT 09/M00 A2997 RMK A01 T00851002  RH  054%=      5-min Rain = 0
KBR1 150101Z 20015KT 08/M00 A2997 RMK A01 T00841002  RH  055%=      5-min Rain = 0
KBR1 150102Z 20015KT 08/M00 A2997 RMK A01 T00831002  RH  055%=      5-min Rain = 0
KBR1 150103Z 20015KT 08/M00 A2997 RMK A01 T00831001  RH  055%=      5-min Rain = 0
KBR1 150104Z 20015KT 08/M00 A2997 RMK A01 T00831001  RH  055%=      5-min Rain = 0
KBR1 150105Z 20017KT 08/00 A2997 RMK A01 T008400-0  RH  055%=      5-min Rain = 0
KBR1 150106Z 20015KT 09/00 A2997 RMK A01 T008500-0  RH  055%=      5-min Rain = 0
KBR1 150107Z 20015KT 08/M00 A2997 RMK A01 T00841001  RH  055%=      5-min Rain = 0
KBR1 150108Z 20015KT 08/M00 A2997 RMK A01 T00831001  RH  055%=      5-min Rain = 0
KBR1 150109Z 20014KT 08/M00 A2997 RMK A01 T00831001  RH  055%=      5-min Rain = 0
KBR1 150110Z 20015KT 08/M00 A2997 RMK A01 T00831001  RH  055%=      5-min Rain = 0
KBR1 150111Z 20015KT 08/M00 A2997 RMK A01 T00831002  RH  055%=      5-min Rain = 0
KBR1 150112Z 21015KT 08/M00 A2997 RMK A01 T00841002  RH  055%=      5-min Rain = 0
KBR1 150113Z 20015KT 08/M00 A2997 RMK A01 T00841002  RH  055%=      5-min Rain = 0
KBR1 150114Z 20016KT 08/M00 A2997 RMK A01 T00841002  RH  055%=      5-min Rain = 0
KBR1 150115Z 20013KT 08/M00 A2997 RMK A01 T00841002  RH  055%=      5-min Rain = 0
KBR1 150116Z 20014KT 08/M00 A2998 RMK A01 T00821002  RH  055%=      5-min Rain = 0
KBR1 150117Z 20014KT 08/M00 A2998 RMK A01 T00821002  RH  055%=      5-min Rain = 0
KBR1 150118Z 20013KT 08/M00 A2998 RMK A01 T00821002  RH  056%=      5-min Rain = 0
KBR1 150119Z 20014KT 08/M00 A2998 RMK A01 T00821002  RH  056%=      5-min Rain = 0
KBR1 150120Z 20015KT 08/M00 A2998 RMK A01 T00821001  RH  056%=      5-min Rain = 0
KBR1 150121Z 20012KT 08/M00 A2998 RMK A01 T00821002  RH  055%=      5-min Rain = 0
KBR1 150122Z 20012KT 08/M00 A2998 RMK A01 T00801002  RH  056%=      5-min Rain = 0
KBR1 150123Z 20011KT 08/M00 A2998 RMK A01 T00791002  RH  056%=      5-min Rain = 0
KBR1 150124Z 20011KT 08/M00 A2998 RMK A01 T00791002  RH  057%=      5-min Rain = 0
KBR1 150125Z 20012KT 08/M00 A2998 RMK A01 T00781002  RH  057%=      5-min Rain = 0
KBR1 150126Z 20011KT 08/M00 A2998 RMK A01 T00781001  RH  057%=      5-min Rain = 0
KBR1 150127Z 20011KT 08/M00 A2998 RMK A01 T00771001  RH  058%=      5-min Rain = 0
KBR1 150128Z 20011KT 08/M00 A2998 RMK A01 T00761001  RH  058%=      5-min Rain = 0
KBR1 150129Z 19012KT 08/M00 A2998 RMK A01 T00761001  RH  058%=      5-min Rain = 0
KBR1 150130Z 20014KT 08/00 A2998 RMK A01 T007600-0  RH  059%=      5-min Rain = 0
KBR1 150131Z 20012KT 08/00 A2998 RMK A01 T00760000  RH  059%=      5-min Rain = 0
KBR1 150132Z 20012KT 08/00 A2998 RMK A01 T00760000  RH  059%=      5-min Rain = 0
KBR1 150133Z 20013KT 08/00 A2998 RMK A01 T007500-0  RH  059%=      5-min Rain = 0
KBR1 150134Z 20011KT 08/00 A2998 RMK A01 T00750000  RH  059%=      5-min Rain = 0
KBR1 150135Z 20011KT 08/00 A2998 RMK A01 T00750001  RH  059%=      5-min Rain = 0
KBR1 150136Z 20015KT 08/00 A2998 RMK A01 T00750001  RH  059%=      5-min Rain = 0
KBR1 150137Z 21014KT 08/00 A2998 RMK A01 T00760002  RH  059%=      5-min Rain = 0
KBR1 150138Z 20013KT 08/00 A2998 RMK A01 T00760001  RH  059%=      5-min Rain = 0
KBR1 150139Z 20013KT 08/00 A2998 RMK A01 T00760001  RH  059%=      5-min Rain = 0
KBR1 150140Z 20013KT 08/00 A2998 RMK A01 T00750001  RH  060%=      5-min Rain = 0
KBR1 150141Z 20014KT 08/00 A2998 RMK A01 T00760002  RH  060%=      5-min Rain = 0
KBR1 150142Z 20013KT 08/00 A2998 RMK A01 T00750001  RH  059%=      5-min Rain = 0
KBR1 150143Z 20012KT 08/00 A2998 RMK A01 T00750002  RH  059%=      5-min Rain = 0
KBR1 150144Z 20012KT 08/00 A2998 RMK A01 T00750002  RH  060%=      5-min Rain = 0
KBR1 150145Z 20012KT 07/00 A2998 RMK A01 T00740001  RH  060%=      5-min Rain = 0
KBR1 150146Z 20011KT 07/00 A2998 RMK A01 T00720001  RH  060%=      5-min Rain = 0
KBR1 150147Z 20012KT 07/00 A2998 RMK A01 T00710001  RH  061%=      5-min Rain = 0
KBR1 150148Z 20012KT 07/00 A2998 RMK A01 T00710001  RH  061%=      5-min Rain = 0
KBR1 150149Z 20012KT 07/00 A2998 RMK A01 T00710002  RH  061%=      5-min Rain = 0
KBR1 150150Z 20013KT 07/00 A2998 RMK A01 T00710002  RH  061%=      5-min Rain = 0
KBR1 150151Z 20013KT 07/00 A2998 RMK A01 T00710002  RH  061%=      5-min Rain = 0
KBR1 150152Z 20012KT 07/00 A2998 RMK A01 T00710002  RH  061%=      5-min Rain = 0
KBR1 150153Z 20012KT 07/00 A2998 RMK A01 T00700002  RH  062%=      5-min Rain = 0
KBR1 150154Z 21012KT 07/00 A2998 RMK A01 T00700002  RH  062%=      5-min Rain = 0
KBR1 150155Z 20011KT 07/00 A2998 RMK A01 T00690002  RH  062%=      5-min Rain = 0
KBR1 150156Z 21012KT 07/00 A2998 RMK A01 T00680002  RH  063%=      5-min Rain = 0
KBR1 150157Z 20013KT 07/00 A2998 RMK A01 T00680002  RH  063%=      5-min Rain = 0
KBR1 150158Z 21012KT 07/00 A2998 RMK A01 T00680002  RH  063%=      5-min Rain = 0
KBR1 150159Z 21013KT 07/00 A2998 RMK A01 T00680002  RH  063%=      5-min Rain = 0
KBR1 150200Z 21016KT 07/00 A2998 RMK A01 T00670002  RH  063%=      5-min Rain = 0
KBR1 150201Z 21013KT 07/00 A2998 RMK A01 T00680003  RH  063%=      5-min Rain = 0
KBR1 150202Z 21012KT 07/00 A2998 RMK A01 T00670002  RH  063%=      5-min Rain = 0
KBR1 150203Z 21013KT 07/00 A2998 RMK A01 T00660001  RH  063%=      5-min Rain = 0
KBR1 150204Z 21013KT 07/00 A2998 RMK A01 T00650001  RH  064%=      5-min Rain = 0
KBR1 150205Z 21013KT 07/00 A2998 RMK A01 T00650002  RH  064%=      5-min Rain = 0
KBR1 150206Z 21015KT 06/00 A2998 RMK A01 T00640001  RH  064%=      5-min Rain = 0
KBR1 150207Z 20015KT 06/00 A2998 RMK A01 T00640002  RH  064%=      5-min Rain = 0
KBR1 150208Z 20015KT 06/00 A2998 RMK A01 T00640002  RH  064%=      5-min Rain = 0
KBR1 150209Z 20015KT 06/00 A2998 RMK A01 T00640002  RH  064%=      5-min Rain = 0
KBR1 150210Z 20015G20KT 06/00 A2998 RMK A01 T00640002  RH  064%=      5-min Rain = 0
KBR1 150211Z 20016KT 06/00 A2998 RMK A01 T00630001  RH  065%=      5-min Rain = 0
KBR1 150212Z 20016KT 06/00 A2998 RMK A01 T00630001  RH  065%=      5-min Rain = 0
KBR1 150213Z 21015KT 06/00 A2998 RMK A01 T00630001  RH  065%=      5-min Rain = 0
KBR1 150214Z 21015KT 06/00 A2998 RMK A01 T00630001  RH  065%=      5-min Rain = 0
KBR1 150215Z 21015KT 06/00 A2998 RMK A01 T00630002  RH  065%=      5-min Rain = 0
KBR1 150216Z 21015KT 06/00 A2998 RMK A01 T00620001  RH  065%=      5-min Rain = 0
KBR1 150217Z 20015KT 06/00 A2998 RMK A01 T00620001  RH  065%=      5-min Rain = 0
KBR1 150218Z 21016KT 06/00 A2998 RMK A01 T00620001  RH  065%=      5-min Rain = 0
KBR1 150219Z 20015KT 06/00 A2998 RMK A01 T00620002  RH  065%=      5-min Rain = 0
KBR1 150220Z 21016KT 06/00 A2998 RMK A01 T00620002  RH  065%=      5-min Rain = 0
KBR1 150221Z 20015KT 06/00 A2998 RMK A01 T00620002  RH  066%=      5-min Rain = 0
KBR1 150222Z 21014KT 06/00 A2998 RMK A01 T00620002  RH  065%=      5-min Rain = 0
KBR1 150223Z 21014KT 06/00 A2998 RMK A01 T00620001  RH  065%=      5-min Rain = 0
KBR1 150224Z 21015KT 06/00 A2998 RMK A01 T00610001  RH  066%=      5-min Rain = 0
KBR1 150225Z 20015KT 06/00 A2998 RMK A01 T00610002  RH  066%=      5-min Rain = 0
KBR1 150226Z 21016KT 06/00 A2998 RMK A01 T00610002  RH  066%=      5-min Rain = 0
KBR1 150227Z 21015KT 06/00 A2998 RMK A01 T00610002  RH  066%=      5-min Rain = 0
KBR1 150228Z 20016KT 06/00 A2998 RMK A01 T00610002  RH  066%=      5-min Rain = 0
KBR1 150229Z 20016KT 06/00 A2998 RMK A01 T00610002  RH  066%=      5-min Rain = 0
KBR1 150230Z 20016G21KT 06/00 A2998 RMK A01 T00610002  RH  066%=      5-min Rain = 0
KBR1 150231Z 21017KT 06/00 A2998 RMK A01 T00610002  RH  066%=      5-min Rain = 0
KBR1 150232Z 21016KT 06/00 A2998 RMK A01 T00610003  RH  066%=      5-min Rain = 0
KBR1 150233Z 20016KT 06/00 A2998 RMK A01 T00610003  RH  066%=      5-min Rain = 0
KBR1 150234Z 21016KT 06/00 A2998 RMK A01 T00610003  RH  066%=      5-min Rain = 0
KBR1 150235Z 21016KT 06/00 A2998 RMK A01 T00610003  RH  066%=      5-min Rain = 0
KBR1 150236Z 21017KT 06/00 A2998 RMK A01 T00610003  RH  066%=      5-min Rain = 0
KBR1 150237Z 21017KT 06/00 A2998 RMK A01 T00620003  RH  066%=      5-min Rain = 0
KBR1 150238Z 20017KT 06/00 A2998 RMK A01 T00620004  RH  066%=      5-min Rain = 0
KBR1 150239Z 21016KT 06/00 A2998 RMK A01 T00620004  RH  066%=      5-min Rain = 0
KBR1 150240Z 20016KT 06/00 A2998 RMK A01 T00610004  RH  066%=      5-min Rain = 0
KBR1 150241Z 20016KT 06/00 A2998 RMK A01 T00610004  RH  067%=      5-min Rain = 0
KBR1 150242Z 21016KT 06/00 A2998 RMK A01 T00610004  RH  067%=      5-min Rain = 0
KBR1 150243Z 21015KT 06/00 A2998 RMK A01 T00600004  RH  067%=      5-min Rain = 0
KBR1 150244Z 20016KT 06/00 A2998 RMK A01 T00600004  RH  067%=      5-min Rain = 0
KBR1 150245Z 20016KT 06/00 A2999 RMK A01 T00600004  RH  067%=      5-min Rain = 0
KBR1 150246Z 21017KT 06/00 A2999 RMK A01 T00600004  RH  067%=      5-min Rain = 0
KBR1 150247Z 20014KT 06/00 A2999 RMK A01 T00600004  RH  067%=      5-min Rain = 0
KBR1 150248Z 20015KT 06/00 A2999 RMK A01 T00600004  RH  067%=      5-min Rain = 0
KBR1 150249Z 20017KT 06/00 A2999 RMK A01 T00600004  RH  068%=      5-min Rain = 0
KBR1 150250Z 20016KT 06/01 A2999 RMK A01 T00610005  RH  067%=      5-min Rain = 0
KBR1 150251Z 20015KT 06/01 A2999 RMK A01 T00610005  RH  067%=      5-min Rain = 0
KBR1 150252Z 20015KT 06/00 A2999 RMK A01 T00600004  RH  067%=      5-min Rain = 0
KBR1 150253Z 20014KT 06/00 A2999 RMK A01 T00590003  RH  068%=      5-min Rain = 0
KBR1 150254Z 19014KT 06/00 A2999 RMK A01 T00570003  RH  068%=      5-min Rain = 0
KBR1 150255Z 20013KT 06/00 A2999 RMK A01 T00550002  RH  069%=      5-min Rain = 0
KBR1 150256Z 20013KT 05/00 A2999 RMK A01 T00540002  RH  069%=      5-min Rain = 0
KBR1 150257Z 20013KT 05/00 A2999 RMK A01 T00530002  RH  070%=      5-min Rain = 0
KBR1 150258Z 20014KT 05/00 A2999 RMK A01 T00520003  RH  070%=      5-min Rain = 0
KBR1 150259Z 20013KT 05/00 A2999 RMK A01 T00520003  RH  070%=      5-min Rain = 0
KBR1 150300Z 19013KT 05/00 A2999 RMK A01 T00510002  RH  071%=      5-min Rain = 0
KBR1 150301Z 19014KT 05/00 A2999 RMK A01 T00490002  RH  071%=      5-min Rain = 0
KBR1 150302Z 19016KT 05/00 A2999 RMK A01 T00480004  RH  073%=      5-min Rain = 0
KBR1 150303Z 19015KT 05/01 A2999 RMK A01 T00470006  RH  075%=      5-min Rain = 0
KBR1 150304Z 19016KT 05/01 A2999 RMK A01 T00460006  RH  075%=      5-min Rain = 0
KBR1 150305Z 19017KT 05/01 A2999 RMK A01 T00450007  RH  076%=      5-min Rain = 0
KBR1 150306Z 19016KT 05/01 A2999 RMK A01 T00450008  RH  077%=      5-min Rain = 0
KBR1 150307Z 19017KT 05/01 A2999 RMK A01 T00450008  RH  077%=      5-min Rain = 0
KBR1 150308Z 19016KT 04/01 A2999 RMK A01 T00440009  RH  078%=      5-min Rain = 0
KBR1 150309Z 19017KT 04/01 A2999 RMK A01 T00440009  RH  078%=      5-min Rain = 0
KBR1 150310Z 19017KT 04/01 A2999 RMK A01 T00440010  RH  079%=      5-min Rain = 0
KBR1 150311Z 19017KT 04/01 A2999 RMK A01 T00430010  RH  079%=      5-min Rain = 0
KBR1 150312Z 20016KT 04/01 A2999 RMK A01 T00440011  RH  079%=      5-min Rain = 0
KBR1 150313Z 19017KT 04/01 A2999 RMK A01 T00440011  RH  080%=      5-min Rain = 0
KBR1 150314Z 19017KT 04/01 A2999 RMK A01 T00430012  RH  080%=      5-min Rain = 0
KBR1 150315Z 19018KT 04/01 A2999 RMK A01 T00430013  RH  080%=      5-min Rain = 0
KBR1 150316Z 19017KT 04/01 A2999 RMK A01 T00430012  RH  080%=      5-min Rain = 0
KBR1 150317Z 19016KT 04/01 A2999 RMK A01 T00440012  RH  080%=      5-min Rain = 0
KBR1 150318Z 19017KT 04/01 A2999 RMK A01 T00440012  RH  080%=      5-min Rain = 0
KBR1 150319Z 19015KT 04/01 A2999 RMK A01 T00440012  RH  080%=      5-min Rain = 0
KBR1 150320Z 19015KT 04/01 A2999 RMK A01 T00430012  RH  080%=      5-min Rain = 0
KBR1 150321Z 19015KT 04/01 A2999 RMK A01 T00430012  RH  081%=      5-min Rain = 0
KBR1 150322Z 19015KT 04/01 A2999 RMK A01 T00420012  RH  081%=      5-min Rain = 0
KBR1 150323Z 19014KT 04/01 A2999 RMK A01 T00420012  RH  081%=      5-min Rain = 0
KBR1 150324Z 19015KT 04/01 A2999 RMK A01 T00410012  RH  081%=      5-min Rain = 0
KBR1 150325Z 19015KT 04/01 A2999 RMK A01 T00410012  RH  082%=      5-min Rain = 0
KBR1 150326Z 19015KT 04/01 A2999 RMK A01 T00410012  RH  082%=      5-min Rain = 0
KBR1 150327Z 20015KT 04/01 A2999 RMK A01 T00410012  RH  082%=      5-min Rain = 0
KBR1 150328Z 19016KT 04/01 A2999 RMK A01 T00410012  RH  082%=      5-min Rain = 0
KBR1 150329Z 19016KT 04/01 A2999 RMK A01 T00410013  RH  082%=      5-min Rain = 0
KBR1 150330Z 19015KT 04/01 A2999 RMK A01 T00410012  RH  082%=      5-min Rain = 0
KBR1 150331Z 19014KT 04/01 A2999 RMK A01 T00410012  RH  082%=      5-min Rain = 0
KBR1 150332Z 19015KT 04/01 A2999 RMK A01 T00410012  RH  082%=      5-min Rain = 0
KBR1 150333Z 19014KT 04/01 A2999 RMK A01 T00400012  RH  082%=      5-min Rain = 0
KBR1 150334Z 19014KT 04/01 A2999 RMK A01 T00390011  RH  082%=      5-min Rain = 0
KBR1 150335Z 19015KT 04/01 A2999 RMK A01 T00390012  RH  082%=      5-min Rain = 0
KBR1 150336Z 19013KT 04/01 A2999 RMK A01 T00390012  RH  082%=      5-min Rain = 0
KBR1 150337Z 19013KT 04/01 A2999 RMK A01 T00390011  RH  082%=      5-min Rain = 0
KBR1 150338Z 20013KT 04/01 A2999 RMK A01 T00380011  RH  082%=      5-min Rain = 0
KBR1 150339Z 20013KT 04/01 A2999 RMK A01 T00380011  RH  083%=      5-min Rain = 0
KBR1 150340Z 19012KT 04/01 A2999 RMK A01 T00380011  RH  083%=      5-min Rain = 0
KBR1 150341Z 20013KT 04/01 A2999 RMK A01 T00370010  RH  083%=      5-min Rain = 0
KBR1 150342Z 19013KT 04/01 A2999 RMK A01 T00370011  RH  083%=      5-min Rain = 0
KBR1 150343Z 20013KT 04/01 A2999 RMK A01 T00370011  RH  083%=      5-min Rain = 0
KBR1 150344Z 20013KT 04/01 A2999 RMK A01 T00370011  RH  083%=      5-min Rain = 0
KBR1 150345Z 19012KT 04/01 A30 RMK A01 T00370011  RH  083%=      5-min Rain = 0
KBR1 150346Z 19013KT 04/01 A30 RMK A01 T00370010  RH  083%=      5-min Rain = 0
KBR1 150347Z 19013KT 04/01 A30 RMK A01 T00360010  RH  083%=      5-min Rain = 0
KBR1 150348Z 19015KT 04/01 A2999 RMK A01 T00360011  RH  084%=      5-min Rain = 0
KBR1 150349Z 19014KT 04/01 A2999 RMK A01 T00360011  RH  083%=      5-min Rain = 0
KBR1 150350Z 19015KT 04/01 A2999 RMK A01 T00360011  RH  084%=      5-min Rain = 0
KBR1 150351Z 19014KT 04/01 A2999 RMK A01 T00370012  RH  084%=      5-min Rain = 0
KBR1 150352Z 19015KT 04/01 A2999 RMK A01 T00370012  RH  084%=      5-min Rain = 0
KBR1 150353Z 19016KT 04/01 A2999 RMK A01 T00370012  RH  084%=      5-min Rain = 0
KBR1 150354Z 19016KT 04/01 A2999 RMK A01 T00370012  RH  084%=      5-min Rain = 0
KBR1 150355Z 19015KT 04/01 A2999 RMK A01 T00370012  RH  084%=      5-min Rain = 0
KBR1 150356Z 19016KT 04/01 A2999 RMK A01 T00370012  RH  084%=      5-min Rain = 0
KBR1 150357Z 19016KT 04/01 A2999 RMK A01 T00370013  RH  084%=      5-min Rain = 0
KBR1 150358Z 19016KT 04/01 A2999 RMK A01 T00370013  RH  084%=      5-min Rain = 0
KBR1 150359Z 19014KT 04/01 A2999 RMK A01 T00370013  RH  084%=      5-min Rain = 0
KBR1 150400Z 19015KT 04/01 A2999 RMK A01 T00350012  RH  085%=      5-min Rain = 0
KBR1 150401Z 19015KT 03/01 A2999 RMK A01 T00340011  RH  085%=      5-min Rain = 0
KBR1 150402Z 19015KT 03/01 A2999 RMK A01 T00330011  RH  086%=      5-min Rain = 0
KBR1 150403Z 19016KT 03/01 A2999 RMK A01 T00320012  RH  087%=      5-min Rain = 0
KBR1 150404Z 19016KT 03/01 A2999 RMK A01 T00320012  RH  087%=      5-min Rain = 0
KBR1 150405Z 19016KT 03/01 A2999 RMK A01 T00320013  RH  087%=      5-min Rain = 0
KBR1 150406Z 19018KT 03/01 A2999 RMK A01 T00320013  RH  087%=      5-min Rain = 0
KBR1 150407Z 19018KT 03/01 A2999 RMK A01 T00330014  RH  087%=      5-min Rain = 0
KBR1 150408Z 19020KT 03/01 A2999 RMK A01 T00330014  RH  087%=      5-min Rain = 0
KBR1 150409Z 19018KT 03/01 A2999 RMK A01 T00340014  RH  087%=      5-min Rain = 0
KBR1 150410Z 19018KT 03/01 A2999 RMK A01 T00340014  RH  087%=      5-min Rain = 0
KBR1 150411Z 20018KT 03/01 A2999 RMK A01 T00340014  RH  087%=      5-min Rain = 0
KBR1 150412Z 19019KT 03/01 A2999 RMK A01 T00340014  RH  087%=      5-min Rain = 0
KBR1 150413Z 20019KT 03/02 A2998 RMK A01 T00340015  RH  087%=      5-min Rain = 0
KBR1 150414Z 20019KT 04/02 A2998 RMK A01 T00350015  RH  087%=      5-min Rain = 0
KBR1 150415Z 20020KT 04/02 A2998 RMK A01 T00360015  RH  087%=      5-min Rain = 0
KBR1 150416Z 20021KT 04/02 A2998 RMK A01 T00360015  RH  086%=      5-min Rain = 0
KBR1 150417Z 20020KT 04/02 A2998 RMK A01 T00370016  RH  086%=      5-min Rain = 0
KBR1 150418Z 20020KT 04/02 A2998 RMK A01 T00370015  RH  086%=      5-min Rain = 0
KBR1 150419Z 20018KT 04/02 A2998 RMK A01 T00380016  RH  086%=      5-min Rain = 0
KBR1 150420Z 20020KT 04/02 A2998 RMK A01 T00380015  RH  086%=      5-min Rain = 0
KBR1 150421Z 20020KT 04/02 A2998 RMK A01 T00380015  RH  085%=      5-min Rain = 0
KBR1 150422Z 20018KT 04/02 A2999 RMK A01 T00380016  RH  085%=      5-min Rain = 0
KBR1 150423Z 20018KT 04/02 A2998 RMK A01 T00380015  RH  085%=      5-min Rain = 0
KBR1 150424Z 20019KT 04/02 A2998 RMK A01 T00380016  RH  085%=      5-min Rain = 0
KBR1 150425Z 20018KT 04/02 A2998 RMK A01 T00380016  RH  086%=      5-min Rain = 0
KBR1 150426Z 20019KT 04/02 A2998 RMK A01 T00380015  RH  085%=      5-min Rain = 0
KBR1 150427Z 20019G24KT 04/02 A2998 RMK A01 T00380015  RH  085%=      5-min Rain = 0
KBR1 150428Z 20019KT 04/02 A2998 RMK A01 T00380015  RH  085%=      5-min Rain = 0
KBR1 150429Z 20018KT 04/02 A2998 RMK A01 T00370015  RH  085%=      5-min Rain = 0
KBR1 150430Z 20019KT 04/02 A2998 RMK A01 T00370015  RH  085%=      5-min Rain = 0
KBR1 150431Z 20019KT 04/02 A2998 RMK A01 T00370015  RH  085%=      5-min Rain = 0
KBR1 150432Z 20018KT 04/02 A2998 RMK A01 T00380015  RH  085%=      5-min Rain = 0
KBR1 150433Z 20019KT 04/02 A2998 RMK A01 T00380015  RH  085%=      5-min Rain = 0
KBR1 150434Z 20020KT 04/02 A2998 RMK A01 T00380015  RH  085%=      5-min Rain = 0
KBR1 150435Z 20017KT 04/02 A2998 RMK A01 T00380015  RH  085%=      5-min Rain = 0
KBR1 150436Z 20017KT 04/02 A2998 RMK A01 T00380015  RH  085%=      5-min Rain = 0
KBR1 150437Z 20017KT 04/01 A2998 RMK A01 T00380014  RH  085%=      5-min Rain = 0
KBR1 150438Z 20017KT 04/01 A2998 RMK A01 T00370014  RH  085%=      5-min Rain = 0
KBR1 150439Z 20018KT 04/01 A2999 RMK A01 T00370014  RH  085%=      5-min Rain = 0
KBR1 150440Z 20019KT 04/01 A2999 RMK A01 T00370014  RH  085%=      5-min Rain = 0
KBR1 150441Z 20017KT 04/01 A2999 RMK A01 T00370014  RH  085%=      5-min Rain = 0
KBR1 150442Z 20018KT 04/01 A2999 RMK A01 T00370014  RH  085%=      5-min Rain = 0
KBR1 150443Z 20019G24KT 04/01 A2999 RMK A01 T00370014  RH  085%=      5-min Rain = 0
KBR1 150444Z 20019KT 04/01 A2999 RMK A01 T00380014  RH  084%=      5-min Rain = 0
KBR1 150445Z 20018KT 04/01 A2999 RMK A01 T00370013  RH  084%=      5-min Rain = 0
KBR1 150446Z 20019KT 04/01 A2999 RMK A01 T00380013  RH  084%=      5-min Rain = 0
KBR1 150447Z 20017KT 04/01 A2999 RMK A01 T00380013  RH  084%=      5-min Rain = 0
KBR1 150448Z 20017KT 04/01 A2999 RMK A01 T00380013  RH  083%=      5-min Rain = 0
KBR1 150449Z 20018KT 04/01 A2999 RMK A01 T00380012  RH  083%=      5-min Rain = 0
KBR1 150450Z 21017KT 04/01 A2999 RMK A01 T00380012  RH  083%=      5-min Rain = 0
KBR1 150451Z 21017KT 04/01 A2999 RMK A01 T00380012  RH  083%=      5-min Rain = 0
KBR1 150452Z 21014KT 04/01 A2999 RMK A01 T00380012  RH  083%=      5-min Rain = 0
KBR1 150453Z 21016KT 04/01 A2999 RMK A01 T00370011  RH  084%=      5-min Rain = 0
KBR1 150454Z 21015KT 04/01 A2999 RMK A01 T00370012  RH  084%=      5-min Rain = 0
KBR1 150455Z 21014KT 04/01 A2999 RMK A01 T00370011  RH  084%=      5-min Rain = 0
KBR1 150456Z 21014KT 04/01 A2999 RMK A01 T00370011  RH  083%=      5-min Rain = 0
KBR1 150457Z 21015KT 04/01 A2999 RMK A01 T00360011  RH  084%=      5-min Rain = 0
KBR1 150458Z 21014KT 04/01 A2999 RMK A01 T00360011  RH  084%=      5-min Rain = 0
KBR1 150459Z 21014KT 04/01 A2999 RMK A01 T00360010  RH  084%=      5-min Rain = 0
KBR1 150500Z 21013KT 04/01 A2999 RMK A01 T00350010  RH  083%=      5-min Rain = 0
KBR1 150501Z 21013KT 04/01 A2999 RMK A01 T00350010  RH  084%=      5-min Rain = 0
KBR1 150502Z 21012G17KT 04/01 A2999 RMK A01 T00350010  RH  084%=      5-min Rain = 0
KBR1 150503Z 21013KT 04/01 A2999 RMK A01 T00350010  RH  084%=      5-min Rain = 0
KBR1 150504Z 21013KT 04/01 A2999 RMK A01 T00350010  RH  084%=      5-min Rain = 0
KBR1 150505Z 21011KT 04/01 A30 RMK A01 T00350009  RH  083%=      5-min Rain = 0
KBR1 150506Z 21014KT 03/01 A30 RMK A01 T00340009  RH  083%=      5-min Rain = 0
KBR1 150507Z 21013KT 03/01 A30 RMK A01 T00340009  RH  084%=      5-min Rain = 0
KBR1 150508Z 21012KT 03/01 A30 RMK A01 T00340009  RH  083%=      5-min Rain = 0
KBR1 150509Z 21013KT 03/01 A30 RMK A01 T00340009  RH  083%=      5-min Rain = 0
KBR1 150510Z 21011KT 04/01 A30 RMK A01 T00350009  RH  083%=      5-min Rain = 0
KBR1 150511Z 21012KT 03/01 A30 RMK A01 T00340008  RH  083%=      5-min Rain = 0
KBR1 150512Z 21011KT 03/01 A30 RMK A01 T00340008  RH  083%=      5-min Rain = 0
KBR1 150513Z 21011KT 03/01 A30 RMK A01 T00340008  RH  083%=      5-min Rain = 0
KBR1 150514Z 21011KT 03/01 A30 RMK A01 T00340008  RH  083%=      5-min Rain = 0
KBR1 150515Z 21011KT 03/01 A30 RMK A01 T00340008  RH  083%=      5-min Rain = 0
KBR1 150516Z 21011KT 03/01 A30 RMK A01 T00340008  RH  083%=      5-min Rain = 0
KBR1 150517Z 21011KT 03/01 A30 RMK A01 T00330007  RH  083%=      5-min Rain = 0
KBR1 150518Z 21010KT 03/01 A30 RMK A01 T00320007  RH  084%=      5-min Rain = 0
KBR1 150519Z 21010KT 03/01 A30 RMK A01 T00330007  RH  083%=      5-min Rain = 0
KBR1 150520Z 21009KT 03/01 A30 RMK A01 T00320007  RH  084%=      5-min Rain = 0
KBR1 150521Z 20010KT 03/01 A30 RMK A01 T00320007  RH  084%=      5-min Rain = 0
KBR1 150522Z 20009KT 03/01 A30 RMK A01 T00310006  RH  084%=      5-min Rain = 0
KBR1 150523Z 20010KT 03/01 A30 RMK A01 T00310006  RH  084%=      5-min Rain = 0
KBR1 150524Z 20009KT 03/01 A30 RMK A01 T00310007  RH  084%=      5-min Rain = 0
KBR1 150525Z 20009KT 03/01 A30 RMK A01 T00310007  RH  084%=      5-min Rain = 0
KBR1 150526Z 20009KT 03/01 A30 RMK A01 T00300006  RH  084%=      5-min Rain = 0
KBR1 150527Z 20011KT 03/01 A30 RMK A01 T00300006  RH  084%=      5-min Rain = 0
KBR1 150528Z 20010KT 03/01 A30 RMK A01 T00310007  RH  084%=      5-min Rain = 0
KBR1 150529Z 20009KT 03/01 A30 RMK A01 T00310007  RH  084%=      5-min Rain = 0
KBR1 150530Z 19008KT 03/01 A30 RMK A01 T00310006  RH  084%=      5-min Rain = 0
KBR1 150531Z 19009KT 03/01 A30 RMK A01 T00300006  RH  085%=      5-min Rain = 0
KBR1 150532Z 19010KT 03/01 A30 RMK A01 T00290006  RH  085%=      5-min Rain = 0
KBR1 150533Z 19009KT 03/01 A30 RMK A01 T00290006  RH  085%=      5-min Rain = 0
KBR1 150534Z 19010KT 03/01 A30 RMK A01 T00290007  RH  085%=      5-min Rain = 0
KBR1 150535Z 19010KT 03/01 A30 RMK A01 T00290007  RH  085%=      5-min Rain = 0
KBR1 150536Z 19010KT 03/01 A2999 RMK A01 T00290006  RH  085%=      5-min Rain = 0
KBR1 150537Z 19010KT 03/01 A2999 RMK A01 T00280006  RH  086%=      5-min Rain = 0
KBR1 150538Z 18011KT 03/01 A2999 RMK A01 T00270006  RH  086%=      5-min Rain = 0
KBR1 150539Z 19010KT 03/01 A2999 RMK A01 T00270007  RH  086%=      5-min Rain = 0
KBR1 150540Z 18011KT 03/01 A2999 RMK A01 T00260006  RH  087%=      5-min Rain = 0
KBR1 150541Z 18011KT 03/01 A2999 RMK A01 T00260006  RH  087%=      5-min Rain = 0
KBR1 150542Z 18011KT 03/01 A2999 RMK A01 T00260006  RH  087%=      5-min Rain = 0
KBR1 150543Z 19011KT 03/01 A2999 RMK A01 T00260007  RH  087%=      5-min Rain = 0
KBR1 150544Z 19010KT 03/01 A2999 RMK A01 T00250006  RH  087%=      5-min Rain = 0
KBR1 150545Z 19010KT 02/01 A2999 RMK A01 T00240006  RH  088%=      5-min Rain = 0
KBR1 150546Z 18010KT 02/01 A2999 RMK A01 T00240006  RH  088%=      5-min Rain = 0
KBR1 150547Z 18009KT 03/01 A2999 RMK A01 T00250006  RH  088%=      5-min Rain = 0
KBR1 150548Z 19009KT 02/01 A30 RMK A01 T00240006  RH  087%=      5-min Rain = 0
KBR1 150549Z 19009KT 02/01 A30 RMK A01 T00240005  RH  088%=      5-min Rain = 0
KBR1 150550Z 19009KT 02/01 A30 RMK A01 T00230006  RH  088%=      5-min Rain = 0
KBR1 150551Z 19008KT 02/01 A30 RMK A01 T00240006  RH  088%=      5-min Rain = 0
KBR1 150552Z 19008KT 02/01 A30 RMK A01 T00230006  RH  088%=      5-min Rain = 0
KBR1 150553Z 19008KT 02/01 A30 RMK A01 T00230005  RH  088%=      5-min Rain = 0
KBR1 150554Z 19008KT 02/01 A30 RMK A01 T00230005  RH  088%=      5-min Rain = 0
KBR1 150555Z 19008KT 02/01 A30 RMK A01 T00220005  RH  088%=      5-min Rain = 0
KBR1 150556Z 19008KT 02/01 A2999 RMK A01 T00220005  RH  088%=      5-min Rain = 0
KBR1 150557Z 19008KT 02/00 A2999 RMK A01 T00210004  RH  089%=      5-min Rain = 0
KBR1 150558Z 19008KT 02/00 A2999 RMK A01 T00210004  RH  089%=      5-min Rain = 0
KBR1 150559Z 19009KT 02/00 A2999 RMK A01 T00200004  RH  089%=      5-min Rain = 0

Page generated in 0.1398 seconds.